GFSNGP_prec_pwat_228.txt.gz
Precipitable_Water
0.53 0.56 0.56 0.53 0.49 0.52 0.46 0.47 0.38 0.32 0.35 0.48 0.53 0.57 0.63 0.66 0.69 0.70 0.70 0.70 0.70 0.70 0.72 0.75 0.80 0.84 0.86 0.87 0.87 0.86 0.83 0.80 0.77 0.75 0.69 0.66 0.66 0.71 0.61 0.59 0.56 0.52 0.49 0.49
0.51 0.60 0.57 0.48 0.51 0.54 0.51 0.49 0.47 0.46 0.33 0.63 0.60 0.64 0.63 0.65 0.69 0.70 0.72 0.73 0.71 0.71 0.72 0.73 0.79 0.83 0.83 0.83 0.88 0.87 0.83 0.77 0.72 0.66 0.64 0.66 0.71 0.60 0.59 0.56 0.55 0.52 0.50 0.50
0.43 0.57 0.55 0.39 0.48 0.51 0.50 0.55 0.54 0.42 0.41 0.67 0.62 0.62 0.64 0.67 0.71 0.71 0.72 0.73 0.74 0.75 0.75 0.74 0.74 0.79 0.80 0.84 0.87 0.81 0.76 0.71 0.66 0.63 0.67 0.70 0.62 0.59 0.55 0.54 0.53 0.51 0.51 0.52
0.48 0.55 0.35 0.39 0.58 0.60 0.55 0.54 0.60 0.55 0.56 0.60 0.63 0.66 0.69 0.73 0.71 0.72 0.76 0.76 0.77 0.78 0.76 0.75 0.75 0.78 0.80 0.80 0.77 0.73 0.70 0.66 0.65 0.67 0.67 0.63 0.58 0.56 0.55 0.53 0.49 0.50 0.52 0.53
0.46 0.45 0.46 0.41 0.54 0.55 0.51 0.42 0.59 0.56 0.59 0.62 0.64 0.66 0.67 0.74 0.76 0.76 0.76 0.75 0.73 0.74 0.74 0.75 0.74 0.75 0.72 0.70 0.68 0.65 0.63 0.62 0.64 0.65 0.59 0.57 0.56 0.55 0.52 0.47 0.48 0.51 0.51 0.53
0.50 0.41 0.33 0.32 0.57 0.63 0.64 0.33 0.62 0.60 0.58 0.59 0.61 0.48 0.54 0.70 0.73 0.71 0.69 0.68 0.68 0.70 0.70 0.70 0.71 0.70 0.65 0.63 0.63 0.61 0.61 0.62 0.62 0.59 0.56 0.54 0.55 0.52 0.51 0.49 0.48 0.47 0.48 0.53
0.46 0.44 0.44 0.50 0.64 0.67 0.40 0.36 0.60 0.62 0.61 0.61 0.57 0.60 0.67 0.70 0.67 0.66 0.67 0.68 0.69 0.69 0.68 0.69 0.69 0.67 0.64 0.62 0.58 0.60 0.60 0.57 0.57 0.57 0.55 0.56 0.52 0.52 0.49 0.47 0.49 0.46 0.46 0.50
0.51 0.45 0.37 0.61 0.64 0.52 0.54 0.64 0.64 0.64 0.63 0.63 0.67 0.70 0.69 0.68 0.66 0.65 0.65 0.66 0.67 0.65 0.64 0.66 0.65 0.62 0.58 0.55 0.57 0.57 0.57 0.56 0.56 0.58 0.57 0.52 0.50 0.49 0.47 0.45 0.45 0.43 0.44 0.45
0.53 0.48 0.64 0.71 0.69 0.73 0.71 0.69 0.67 0.64 0.64 0.67 0.66 0.66 0.65 0.65 0.66 0.66 0.67 0.67 0.65 0.61 0.61 0.61 0.59 0.57 0.53 0.55 0.59 0.59 0.57 0.56 0.57 0.56 0.51 0.50 0.48 0.45 0.43 0.44 0.43 0.41 0.41 0.41
0.59 0.62 0.67 0.72 0.77 0.74 0.75 0.70 0.69 0.68 0.65 0.65 0.64 0.65 0.66 0.68 0.68 0.68 0.67 0.63 0.60 0.59 0.57 0.56 0.57 0.57 0.60 0.61 0.61 0.58 0.56 0.56 0.54 0.50 0.48 0.48 0.47 0.44 0.44 0.43 0.42 0.40 0.39 0.40
0.62 0.69 0.69 0.72 0.75 0.80 0.79 0.75 0.71 0.73 0.73 0.72 0.71 0.69 0.70 0.73 0.71 0.66 0.63 0.60 0.58 0.56 0.55 0.55 0.58 0.60 0.62 0.61 0.60 0.56 0.55 0.53 0.51 0.48 0.46 0.45 0.46 0.45 0.45 0.49 0.48 0.43 0.42 0.42
0.51 0.67 0.69 0.70 0.76 0.76 0.73 0.76 0.78 0.78 0.75 0.74 0.75 0.75 0.73 0.67 0.66 0.63 0.60 0.60 0.58 0.57 0.55 0.57 0.59 0.59 0.60 0.62 0.59 0.54 0.50 0.47 0.46 0.46 0.45 0.44 0.43 0.43 0.50 0.52 0.51 0.50 0.49 0.46
0.61 0.70 0.70 0.71 0.76 0.77 0.70 0.71 0.69 0.68 0.65 0.59 0.62 0.63 0.63 0.62 0.62 0.62 0.61 0.57 0.54 0.54 0.55 0.57 0.58 0.59 0.61 0.58 0.54 0.49 0.44 0.44 0.43 0.42 0.42 0.41 0.43 0.43 0.42 0.50 0.52 0.51 0.50 0.49
0.60 0.59 0.54 0.56 0.57 0.63 0.64 0.64 0.60 0.58 0.57 0.57 0.57 0.59 0.59 0.60 0.61 0.58 0.56 0.55 0.55 0.55 0.55 0.58 0.59 0.56 0.56 0.52 0.46 0.43 0.43 0.42 0.41 0.40 0.40 0.40 0.42 0.44 0.46 0.45 0.43 0.45 0.51 0.50
0.49 0.52 0.47 0.48 0.51 0.55 0.58 0.56 0.54 0.50 0.51 0.52 0.55 0.55 0.56 0.54 0.54 0.54 0.55 0.55 0.56 0.57 0.56 0.54 0.50 0.49 0.47 0.45 0.43 0.41 0.40 0.40 0.40 0.39 0.39 0.40 0.42 0.44 0.46 0.47 0.46 0.48 0.49 0.50
0.43 0.46 0.45 0.44 0.46 0.49 0.50 0.49 0.47 0.48 0.51 0.52 0.52 0.53 0.54 0.56 0.57 0.57 0.58 0.57 0.51 0.48 0.47 0.45 0.42 0.43 0.44 0.44 0.41 0.40 0.38 0.38 0.37 0.38 0.39 0.39 0.40 0.40 0.42 0.44 0.47 0.48 0.48 0.48
0.37 0.36 0.39 0.37 0.40 0.43 0.45 0.46 0.47 0.52 0.52 0.52 0.53 0.54 0.55 0.53 0.52 0.51 0.50 0.50 0.48 0.45 0.43 0.40 0.39 0.41 0.41 0.40 0.38 0.37 0.36 0.36 0.36 0.37 0.38 0.39 0.39 0.39 0.41 0.42 0.42 0.45 0.47 0.49
0.35 0.36 0.39 0.39 0.37 0.38 0.39 0.43 0.46 0.48 0.48 0.49 0.50 0.49 0.48 0.47 0.45 0.45 0.45 0.45 0.42 0.40 0.38 0.38 0.38 0.38 0.37 0.37 0.36 0.35 0.34 0.34 0.35 0.35 0.36 0.36 0.37 0.38 0.39 0.40 0.41 0.41 0.43 0.45
0.32 0.34 0.37 0.38 0.40 0.42 0.43 0.43 0.44 0.46 0.46 0.46 0.44 0.43 0.43 0.42 0.41 0.39 0.38 0.36 0.34 0.30 0.31 0.34 0.35 0.33 0.33 0.33 0.33 0.34 0.33 0.33 0.33 0.34 0.35 0.36 0.36 0.37 0.37 0.37 0.38 0.40 0.41 0.41
0.37 0.39 0.41 0.42 0.45 0.45 0.44 0.45 0.46 0.44 0.43 0.42 0.40 0.38 0.36 0.33 0.31 0.30 0.29 0.27 0.29 0.30 0.31 0.31 0.32 0.33 0.33 0.34 0.32 0.32 0.32 0.32 0.32 0.34 0.35 0.36 0.36 0.36 0.37 0.37 0.37 0.36 0.37 0.38
0.40 0.41 0.41 0.41 0.42 0.44 0.44 0.44 0.41 0.38 0.38 0.37 0.35 0.31 0.28 0.28 0.29 0.28 0.27 0.25 0.29 0.29 0.29 0.28 0.29 0.29 0.31 0.31 0.30 0.29 0.28 0.28 0.28 0.30 0.32 0.34 0.36 0.36 0.36 0.37 0.36 0.35 0.35 0.36
0.40 0.39 0.39 0.38 0.38 0.37 0.39 0.38 0.37 0.36 0.35 0.33 0.31 0.30 0.28 0.27 0.27 0.28 0.29 0.28 0.32 0.32 0.31 0.30 0.30 0.30 0.29 0.28 0.27 0.26 0.25 0.25 0.26 0.28 0.30 0.31 0.32 0.33 0.34 0.35 0.35 0.36 0.35 0.34
0.38 0.36 0.34 0.34 0.33 0.33 0.34 0.33 0.31 0.29 0.27 0.27 0.26 0.26 0.26 0.26 0.26 0.24 0.23 0.28 0.28 0.28 0.26 0.26 0.27 0.26 0.25 0.26 0.26 0.25 0.25 0.25 0.26 0.27 0.29 0.30 0.31 0.32 0.32 0.32 0.33 0.34 0.35 0.35
0.37 0.34 0.32 0.31 0.30 0.28 0.26 0.27 0.26 0.25 0.25 0.24 0.22 0.21 0.20 0.20 0.21 0.22 0.21 0.21 0.20 0.20 0.20 0.21 0.23 0.23 0.23 0.24 0.26 0.26 0.25 0.26 0.26 0.27 0.28 0.29 0.30 0.30 0.31 0.31 0.31 0.32 0.32 0.33
0.29 0.28 0.27 0.26 0.25 0.24 0.23 0.22 0.21 0.21 0.21 0.20 0.19 0.18 0.17 0.17 0.15 0.16 0.17 0.17 0.17 0.16 0.17 0.18 0.17 0.18 0.20 0.22 0.24 0.24 0.24 0.24 0.25 0.26 0.26 0.27 0.27 0.28 0.28 0.29 0.29 0.29 0.29 0.30
0.27 0.27 0.26 0.25 0.23 0.22 0.22 0.22 0.20 0.18 0.14 0.13 0.14 0.15 0.16 0.16 0.16 0.15 0.16 0.16 0.16 0.15 0.16 0.17 0.17 0.18 0.20 0.22 0.23 0.23 0.24 0.23 0.23 0.24 0.24 0.25 0.25 0.25 0.26 0.26 0.26 0.27 0.27 0.27
0.26 0.24 0.23 0.23 0.23 0.22 0.19 0.15 0.13 0.12 0.13 0.13 0.13 0.14 0.14 0.14 0.15 0.15 0.15 0.16 0.16 0.16 0.16 0.17 0.17 0.18 0.20 0.22 0.22 0.23 0.23 0.23 0.23 0.23 0.23 0.23 0.23 0.24 0.24 0.25 0.25 0.25 0.25 0.25

GFSNGP_prec_pwat_231.txt.gz
Precipitable_Water
0.43 0.48 0.48 0.46 0.46 0.47 0.45 0.48 0.41 0.43 0.42 0.51 0.56 0.58 0.62 0.66 0.67 0.68 0.70 0.73 0.75 0.76 0.80 0.81 0.82 0.83 0.89 0.91 0.90 0.92 0.93 0.92 0.89 0.93 0.92 0.89 0.84 0.78 0.77 0.76 0.73 0.77 0.66 0.58
0.45 0.53 0.51 0.45 0.47 0.49 0.48 0.49 0.46 0.47 0.39 0.59 0.62 0.63 0.63 0.67 0.67 0.67 0.70 0.71 0.75 0.79 0.80 0.80 0.78 0.80 0.86 0.93 0.93 0.92 0.90 0.89 0.93 0.95 0.92 0.85 0.79 0.73 0.79 0.73 0.75 0.68 0.57 0.58
0.41 0.57 0.54 0.38 0.47 0.49 0.49 0.52 0.50 0.39 0.38 0.61 0.57 0.59 0.62 0.66 0.71 0.71 0.73 0.75 0.77 0.79 0.79 0.80 0.83 0.83 0.81 0.88 0.93 0.88 0.89 0.89 0.92 0.90 0.83 0.80 0.76 0.76 0.71 0.72 0.68 0.58 0.61 0.58
0.48 0.54 0.33 0.39 0.55 0.56 0.52 0.51 0.54 0.49 0.51 0.61 0.59 0.63 0.66 0.71 0.68 0.68 0.71 0.74 0.77 0.80 0.81 0.80 0.81 0.80 0.80 0.82 0.83 0.85 0.85 0.85 0.83 0.82 0.78 0.78 0.77 0.71 0.71 0.66 0.61 0.60 0.55 0.53
0.47 0.45 0.44 0.43 0.52 0.53 0.51 0.45 0.59 0.55 0.55 0.59 0.65 0.64 0.62 0.70 0.71 0.72 0.73 0.77 0.78 0.79 0.77 0.75 0.73 0.75 0.77 0.77 0.78 0.79 0.76 0.74 0.76 0.77 0.73 0.71 0.69 0.67 0.64 0.63 0.59 0.54 0.53 0.51
0.51 0.42 0.31 0.41 0.54 0.65 0.65 0.31 0.60 0.58 0.55 0.58 0.63 0.50 0.56 0.69 0.73 0.75 0.77 0.72 0.69 0.69 0.69 0.69 0.72 0.75 0.73 0.73 0.72 0.69 0.70 0.71 0.71 0.71 0.68 0.65 0.63 0.62 0.64 0.62 0.58 0.55 0.51 0.51
0.50 0.45 0.42 0.53 0.59 0.68 0.42 0.35 0.59 0.63 0.63 0.62 0.57 0.61 0.67 0.73 0.74 0.75 0.70 0.67 0.68 0.68 0.67 0.71 0.74 0.74 0.69 0.68 0.66 0.68 0.69 0.69 0.70 0.69 0.65 0.61 0.62 0.63 0.63 0.61 0.56 0.52 0.49 0.49
0.52 0.46 0.34 0.60 0.60 0.52 0.53 0.65 0.67 0.66 0.69 0.66 0.66 0.68 0.71 0.74 0.73 0.71 0.68 0.66 0.68 0.68 0.69 0.74 0.75 0.71 0.67 0.67 0.71 0.71 0.70 0.67 0.66 0.64 0.62 0.60 0.62 0.63 0.63 0.57 0.52 0.48 0.45 0.44
0.55 0.47 0.57 0.64 0.66 0.73 0.73 0.71 0.72 0.72 0.75 0.74 0.69 0.70 0.73 0.72 0.69 0.68 0.67 0.67 0.69 0.69 0.70 0.74 0.72 0.70 0.67 0.68 0.67 0.66 0.64 0.61 0.62 0.62 0.61 0.61 0.60 0.59 0.55 0.52 0.48 0.42 0.42 0.41
0.62 0.61 0.64 0.67 0.74 0.77 0.78 0.77 0.78 0.81 0.77 0.74 0.67 0.70 0.67 0.69 0.68 0.69 0.71 0.71 0.70 0.69 0.69 0.68 0.66 0.65 0.68 0.67 0.66 0.62 0.61 0.60 0.62 0.60 0.60 0.61 0.58 0.54 0.52 0.49 0.45 0.43 0.42 0.39
0.60 0.68 0.71 0.72 0.78 0.81 0.85 0.84 0.83 0.79 0.73 0.72 0.72 0.72 0.72 0.71 0.73 0.74 0.74 0.74 0.72 0.69 0.67 0.67 0.69 0.70 0.69 0.65 0.63 0.61 0.61 0.61 0.61 0.62 0.62 0.57 0.54 0.52 0.50 0.50 0.49 0.44 0.45 0.43
0.53 0.69 0.68 0.71 0.79 0.82 0.79 0.79 0.82 0.80 0.80 0.83 0.81 0.77 0.79 0.79 0.79 0.75 0.70 0.64 0.65 0.66 0.66 0.68 0.65 0.62 0.63 0.64 0.62 0.60 0.59 0.58 0.60 0.58 0.54 0.53 0.51 0.48 0.51 0.51 0.50 0.51 0.48 0.47
0.55 0.65 0.65 0.68 0.72 0.74 0.72 0.76 0.77 0.76 0.77 0.75 0.74 0.70 0.69 0.66 0.66 0.63 0.62 0.63 0.65 0.66 0.67 0.64 0.63 0.63 0.65 0.62 0.62 0.62 0.59 0.57 0.53 0.50 0.48 0.47 0.46 0.43 0.40 0.47 0.50 0.49 0.49 0.48
0.54 0.63 0.55 0.55 0.53 0.62 0.66 0.66 0.67 0.68 0.67 0.64 0.63 0.62 0.60 0.59 0.58 0.58 0.59 0.62 0.65 0.65 0.63 0.62 0.60 0.59 0.62 0.64 0.62 0.59 0.55 0.51 0.47 0.47 0.46 0.44 0.42 0.42 0.41 0.41 0.42 0.43 0.47 0.49
0.46 0.57 0.53 0.49 0.52 0.51 0.54 0.53 0.56 0.56 0.58 0.58 0.59 0.58 0.57 0.56 0.57 0.58 0.60 0.60 0.59 0.59 0.59 0.58 0.58 0.58 0.62 0.60 0.55 0.52 0.49 0.47 0.47 0.46 0.44 0.42 0.41 0.40 0.41 0.42 0.43 0.44 0.47 0.50
0.43 0.44 0.42 0.40 0.43 0.48 0.49 0.51 0.52 0.53 0.54 0.54 0.53 0.53 0.55 0.57 0.57 0.57 0.58 0.59 0.56 0.55 0.56 0.55 0.54 0.56 0.56 0.52 0.49 0.48 0.46 0.44 0.41 0.40 0.40 0.39 0.39 0.39 0.38 0.39 0.41 0.43 0.46 0.48
0.39 0.41 0.42 0.41 0.42 0.43 0.44 0.47 0.49 0.49 0.50 0.51 0.51 0.53 0.54 0.54 0.55 0.54 0.55 0.56 0.55 0.54 0.54 0.52 0.49 0.50 0.49 0.47 0.45 0.44 0.42 0.40 0.39 0.38 0.38 0.38 0.39 0.39 0.39 0.39 0.39 0.41 0.43 0.48
0.35 0.38 0.38 0.38 0.40 0.42 0.46 0.48 0.46 0.45 0.45 0.47 0.48 0.48 0.47 0.47 0.47 0.48 0.50 0.51 0.50 0.49 0.48 0.47 0.46 0.44 0.43 0.43 0.41 0.40 0.38 0.37 0.37 0.36 0.37 0.37 0.38 0.38 0.37 0.38 0.38 0.39 0.41 0.44
0.35 0.34 0.39 0.39 0.40 0.39 0.40 0.40 0.43 0.44 0.45 0.45 0.44 0.43 0.43 0.44 0.44 0.44 0.45 0.43 0.41 0.39 0.40 0.39 0.38 0.37 0.36 0.37 0.34 0.35 0.35 0.34 0.34 0.34 0.35 0.36 0.36 0.36 0.36 0.36 0.37 0.38 0.39 0.39
0.35 0.37 0.38 0.38 0.40 0.40 0.40 0.43 0.44 0.43 0.43 0.43 0.42 0.40 0.39 0.39 0.39 0.35 0.34 0.32 0.34 0.36 0.35 0.34 0.34 0.35 0.36 0.36 0.35 0.34 0.34 0.33 0.32 0.32 0.34 0.35 0.35 0.36 0.37 0.37 0.37 0.38 0.38 0.38
0.38 0.41 0.41 0.41 0.41 0.43 0.44 0.45 0.44 0.41 0.42 0.42 0.39 0.37 0.35 0.32 0.30 0.29 0.28 0.28 0.34 0.32 0.32 0.31 0.31 0.32 0.33 0.34 0.34 0.33 0.33 0.31 0.30 0.29 0.30 0.31 0.33 0.34 0.35 0.37 0.37 0.37 0.37 0.37
0.42 0.42 0.42 0.42 0.41 0.41 0.42 0.41 0.40 0.38 0.37 0.36 0.35 0.33 0.31 0.30 0.30 0.30 0.30 0.29 0.34 0.34 0.33 0.33 0.34 0.34 0.34 0.33 0.31 0.31 0.29 0.27 0.26 0.26 0.25 0.27 0.29 0.31 0.32 0.33 0.34 0.35 0.36 0.37
0.39 0.38 0.36 0.35 0.34 0.33 0.34 0.34 0.34 0.32 0.30 0.29 0.28 0.27 0.27 0.27 0.27 0.25 0.24 0.30 0.29 0.28 0.27 0.27 0.29 0.28 0.27 0.26 0.26 0.25 0.26 0.25 0.25 0.25 0.26 0.27 0.28 0.30 0.31 0.31 0.32 0.33 0.33 0.34
0.37 0.35 0.33 0.32 0.30 0.29 0.26 0.26 0.25 0.25 0.24 0.24 0.22 0.21 0.21 0.21 0.22 0.23 0.23 0.23 0.22 0.21 0.19 0.19 0.19 0.19 0.19 0.21 0.22 0.23 0.24 0.25 0.25 0.26 0.27 0.27 0.29 0.30 0.30 0.30 0.30 0.31 0.31 0.31
0.32 0.30 0.29 0.27 0.26 0.25 0.24 0.24 0.23 0.23 0.23 0.23 0.21 0.20 0.18 0.17 0.16 0.17 0.17 0.17 0.17 0.17 0.17 0.18 0.18 0.17 0.17 0.19 0.21 0.22 0.23 0.24 0.25 0.25 0.25 0.25 0.26 0.26 0.27 0.28 0.28 0.29 0.29 0.29
0.28 0.28 0.28 0.27 0.26 0.25 0.24 0.24 0.22 0.21 0.16 0.15 0.17 0.17 0.17 0.17 0.17 0.16 0.17 0.17 0.17 0.17 0.17 0.17 0.17 0.18 0.19 0.20 0.21 0.22 0.23 0.23 0.24 0.24 0.24 0.24 0.24 0.24 0.25 0.25 0.26 0.26 0.27 0.27
0.28 0.28 0.25 0.24 0.24 0.24 0.21 0.17 0.16 0.14 0.15 0.15 0.16 0.16 0.16 0.16 0.16 0.16 0.16 0.16 0.17 0.17 0.17 0.17 0.18 0.18 0.19 0.20 0.21 0.22 0.22 0.23 0.23 0.23 0.23 0.22 0.23 0.23 0.23 0.23 0.24 0.25 0.25 0.25

GFSNGP_prec_pwat_237.txt.gz
Precipitable_Water
0.30 0.33 0.33 0.30 0.28 0.27 0.26 0.28 0.28 0.31 0.32 0.39 0.44 0.50 0.58 0.63 0.66 0.64 0.68 0.72 0.75 0.76 0.77 0.77 0.78 0.81 0.84 0.88 0.95 1.04 1.08 1.09 1.09 1.13 1.14 1.13 1.11 1.12 1.10 1.09 1.08 1.05 0.92 0.80
0.28 0.35 0.33 0.28 0.28 0.29 0.28 0.28 0.30 0.30 0.28 0.43 0.48 0.54 0.54 0.57 0.61 0.63 0.67 0.72 0.73 0.75 0.76 0.76 0.78 0.82 0.84 0.88 0.92 0.98 1.00 1.01 1.06 1.07 1.08 1.07 1.07 1.05 1.05 1.04 1.04 1.00 0.86 0.81
0.26 0.36 0.34 0.23 0.28 0.29 0.30 0.37 0.38 0.32 0.37 0.52 0.53 0.57 0.58 0.61 0.65 0.67 0.69 0.73 0.75 0.77 0.80 0.83 0.85 0.89 0.90 0.92 0.94 0.95 0.98 1.00 0.99 1.00 0.98 1.00 1.02 1.01 1.00 0.99 0.97 0.90 0.83 0.85
0.29 0.37 0.24 0.27 0.36 0.38 0.39 0.43 0.49 0.51 0.54 0.59 0.62 0.66 0.69 0.73 0.70 0.69 0.72 0.74 0.76 0.79 0.83 0.86 0.89 0.89 0.92 0.93 0.93 0.94 0.94 0.91 0.91 0.93 0.93 0.96 0.97 0.96 0.96 0.94 0.90 0.86 0.85 0.85
0.31 0.32 0.32 0.30 0.39 0.39 0.41 0.37 0.51 0.54 0.60 0.65 0.69 0.70 0.68 0.77 0.81 0.78 0.78 0.78 0.79 0.84 0.85 0.86 0.87 0.90 0.90 0.88 0.89 0.86 0.79 0.80 0.85 0.89 0.91 0.92 0.91 0.90 0.91 0.88 0.86 0.84 0.82 0.81
0.40 0.33 0.25 0.28 0.46 0.55 0.65 0.40 0.69 0.67 0.69 0.73 0.76 0.60 0.66 0.79 0.80 0.78 0.80 0.84 0.85 0.88 0.88 0.86 0.87 0.88 0.84 0.79 0.77 0.76 0.79 0.82 0.86 0.88 0.89 0.88 0.88 0.86 0.85 0.83 0.80 0.78 0.77 0.71
0.36 0.36 0.35 0.46 0.54 0.61 0.41 0.44 0.73 0.76 0.76 0.73 0.69 0.74 0.82 0.86 0.84 0.83 0.81 0.81 0.83 0.86 0.85 0.87 0.88 0.81 0.76 0.76 0.75 0.81 0.85 0.85 0.86 0.86 0.85 0.86 0.84 0.83 0.81 0.78 0.78 0.74 0.68 0.72
0.45 0.42 0.32 0.58 0.61 0.52 0.63 0.75 0.75 0.76 0.76 0.76 0.78 0.77 0.76 0.79 0.83 0.81 0.81 0.78 0.73 0.80 0.79 0.82 0.85 0.81 0.79 0.76 0.83 0.86 0.86 0.86 0.82 0.81 0.80 0.79 0.76 0.76 0.77 0.77 0.71 0.68 0.69 0.69
0.51 0.47 0.64 0.71 0.75 0.85 0.84 0.79 0.78 0.80 0.82 0.81 0.79 0.79 0.81 0.78 0.82 0.82 0.80 0.75 0.78 0.80 0.78 0.84 0.87 0.84 0.76 0.79 0.84 0.85 0.82 0.80 0.79 0.76 0.76 0.75 0.74 0.75 0.74 0.70 0.67 0.66 0.66 0.65
0.63 0.67 0.72 0.80 0.84 0.84 0.83 0.76 0.75 0.75 0.75 0.74 0.71 0.78 0.77 0.79 0.81 0.86 0.88 0.85 0.86 0.87 0.81 0.82 0.83 0.84 0.84 0.86 0.87 0.84 0.81 0.78 0.75 0.73 0.74 0.75 0.75 0.71 0.67 0.66 0.64 0.64 0.61 0.60
0.64 0.72 0.77 0.80 0.81 0.77 0.75 0.75 0.72 0.73 0.70 0.66 0.67 0.66 0.67 0.70 0.73 0.78 0.82 0.88 0.86 0.85 0.84 0.81 0.83 0.82 0.83 0.82 0.82 0.80 0.77 0.75 0.73 0.73 0.71 0.68 0.65 0.65 0.66 0.68 0.65 0.60 0.60 0.59
0.55 0.70 0.68 0.68 0.69 0.69 0.67 0.66 0.66 0.64 0.64 0.66 0.64 0.61 0.64 0.64 0.68 0.66 0.69 0.72 0.74 0.81 0.81 0.77 0.75 0.75 0.76 0.78 0.79 0.76 0.73 0.72 0.71 0.69 0.67 0.65 0.66 0.66 0.71 0.69 0.65 0.62 0.61 0.58
0.56 0.58 0.56 0.56 0.56 0.58 0.60 0.61 0.62 0.60 0.60 0.59 0.61 0.63 0.65 0.64 0.59 0.59 0.60 0.62 0.65 0.71 0.73 0.74 0.73 0.73 0.74 0.76 0.75 0.72 0.69 0.67 0.66 0.65 0.64 0.63 0.63 0.61 0.57 0.59 0.59 0.58 0.60 0.59
0.50 0.47 0.44 0.46 0.44 0.50 0.51 0.53 0.56 0.53 0.53 0.54 0.55 0.57 0.57 0.56 0.58 0.57 0.55 0.56 0.60 0.63 0.65 0.69 0.69 0.68 0.72 0.73 0.70 0.66 0.64 0.63 0.62 0.61 0.60 0.59 0.58 0.56 0.53 0.49 0.48 0.51 0.56 0.56
0.40 0.41 0.40 0.41 0.44 0.44 0.47 0.48 0.44 0.44 0.45 0.46 0.49 0.50 0.52 0.50 0.48 0.47 0.49 0.51 0.54 0.56 0.58 0.61 0.61 0.62 0.66 0.66 0.63 0.61 0.60 0.59 0.58 0.57 0.57 0.55 0.52 0.50 0.50 0.50 0.48 0.48 0.49 0.52
0.39 0.39 0.39 0.39 0.40 0.42 0.42 0.44 0.43 0.45 0.48 0.48 0.48 0.49 0.48 0.47 0.45 0.46 0.48 0.50 0.49 0.48 0.51 0.53 0.54 0.56 0.58 0.58 0.56 0.55 0.55 0.54 0.54 0.52 0.51 0.50 0.48 0.47 0.46 0.45 0.45 0.45 0.45 0.47
0.31 0.28 0.29 0.30 0.33 0.34 0.36 0.38 0.39 0.40 0.41 0.42 0.42 0.44 0.43 0.42 0.42 0.42 0.44 0.46 0.46 0.46 0.47 0.48 0.48 0.51 0.52 0.53 0.51 0.50 0.50 0.49 0.49 0.47 0.46 0.45 0.44 0.44 0.44 0.44 0.44 0.43 0.43 0.46
0.37 0.36 0.35 0.34 0.32 0.33 0.35 0.38 0.40 0.41 0.40 0.42 0.42 0.41 0.39 0.38 0.38 0.39 0.41 0.43 0.43 0.42 0.44 0.45 0.45 0.45 0.44 0.44 0.44 0.44 0.43 0.42 0.42 0.41 0.41 0.41 0.41 0.42 0.42 0.42 0.41 0.41 0.42 0.45
0.32 0.32 0.33 0.34 0.35 0.35 0.35 0.36 0.37 0.38 0.39 0.39 0.38 0.37 0.38 0.39 0.39 0.38 0.38 0.37 0.37 0.37 0.37 0.39 0.38 0.39 0.40 0.41 0.39 0.37 0.36 0.34 0.34 0.34 0.34 0.34 0.35 0.37 0.37 0.38 0.39 0.39 0.40 0.40
0.31 0.33 0.33 0.32 0.35 0.36 0.36 0.38 0.39 0.39 0.40 0.40 0.39 0.37 0.35 0.34 0.34 0.32 0.33 0.32 0.33 0.33 0.35 0.34 0.34 0.35 0.35 0.37 0.38 0.37 0.36 0.35 0.34 0.33 0.32 0.32 0.32 0.33 0.34 0.36 0.37 0.38 0.38 0.38
0.31 0.33 0.34 0.36 0.37 0.39 0.40 0.40 0.39 0.38 0.39 0.38 0.35 0.32 0.30 0.31 0.31 0.30 0.28 0.27 0.30 0.32 0.33 0.33 0.32 0.32 0.32 0.33 0.34 0.35 0.34 0.34 0.33 0.31 0.30 0.28 0.28 0.29 0.29 0.33 0.35 0.37 0.38 0.39
0.35 0.36 0.37 0.36 0.35 0.35 0.36 0.36 0.34 0.33 0.31 0.29 0.27 0.27 0.26 0.24 0.25 0.27 0.27 0.26 0.29 0.28 0.28 0.28 0.28 0.28 0.27 0.27 0.28 0.29 0.30 0.29 0.28 0.29 0.26 0.25 0.24 0.23 0.24 0.26 0.29 0.32 0.35 0.37
0.36 0.35 0.33 0.32 0.31 0.29 0.28 0.27 0.26 0.24 0.22 0.21 0.21 0.21 0.22 0.24 0.24 0.22 0.20 0.23 0.22 0.21 0.21 0.20 0.20 0.18 0.16 0.15 0.15 0.16 0.18 0.19 0.20 0.22 0.23 0.22 0.23 0.24 0.25 0.25 0.27 0.29 0.30 0.31
0.34 0.34 0.33 0.30 0.29 0.26 0.24 0.24 0.24 0.23 0.22 0.22 0.22 0.22 0.20 0.16 0.15 0.17 0.18 0.18 0.17 0.16 0.16 0.18 0.16 0.16 0.16 0.17 0.17 0.17 0.17 0.19 0.20 0.22 0.23 0.22 0.23 0.23 0.23 0.24 0.26 0.28 0.30 0.30
0.33 0.32 0.30 0.28 0.25 0.24 0.24 0.24 0.23 0.23 0.25 0.24 0.22 0.19 0.17 0.16 0.13 0.14 0.15 0.16 0.16 0.16 0.16 0.17 0.17 0.18 0.19 0.19 0.19 0.20 0.20 0.21 0.21 0.21 0.21 0.21 0.22 0.22 0.22 0.23 0.24 0.25 0.25 0.26
0.30 0.29 0.28 0.28 0.26 0.26 0.24 0.24 0.23 0.23 0.21 0.18 0.18 0.17 0.16 0.16 0.15 0.16 0.16 0.16 0.16 0.16 0.16 0.16 0.17 0.18 0.18 0.17 0.17 0.18 0.18 0.19 0.19 0.20 0.21 0.21 0.21 0.21 0.21 0.21 0.22 0.22 0.23 0.23
0.29 0.28 0.27 0.26 0.26 0.24 0.24 0.23 0.21 0.18 0.16 0.16 0.15 0.15 0.14 0.15 0.15 0.15 0.15 0.15 0.15 0.16 0.16 0.17 0.17 0.17 0.17 0.17 0.18 0.18 0.19 0.19 0.20 0.20 0.20 0.20 0.20 0.20 0.20 0.20 0.21 0.21 0.22 0.22

GFSNGP_prec_pwat_240.txt.gz
Precipitable_Water
0.34 0.36 0.35 0.29 0.26 0.27 0.27 0.30 0.27 0.26 0.26 0.28 0.28 0.29 0.35 0.43 0.46 0.50 0.58 0.60 0.64 0.72 0.76 0.81 0.84 0.90 0.95 0.98 1.02 1.05 1.04 1.04 1.05 1.11 1.16 1.20 1.19 1.15 1.13 1.13 1.07 1.07 1.04 1.00
0.34 0.38 0.37 0.31 0.31 0.30 0.29 0.28 0.29 0.27 0.24 0.30 0.33 0.39 0.42 0.50 0.61 0.61 0.64 0.66 0.68 0.70 0.71 0.73 0.77 0.80 0.84 0.89 0.95 1.06 1.03 1.02 1.11 1.15 1.16 1.14 1.13 1.08 1.04 1.03 1.03 1.02 0.99 0.97
0.29 0.38 0.38 0.28 0.32 0.32 0.33 0.35 0.31 0.24 0.28 0.37 0.37 0.44 0.55 0.62 0.66 0.70 0.71 0.72 0.74 0.75 0.75 0.78 0.79 0.81 0.83 0.88 0.92 0.96 0.98 1.05 1.09 1.11 1.12 1.14 1.11 1.04 1.01 1.00 1.03 0.99 0.99 0.97
0.34 0.38 0.26 0.30 0.36 0.35 0.34 0.35 0.37 0.37 0.39 0.42 0.49 0.57 0.63 0.74 0.74 0.76 0.76 0.77 0.79 0.80 0.80 0.82 0.84 0.86 0.88 0.91 0.93 0.95 0.98 1.00 1.01 1.03 1.01 1.02 1.01 0.98 0.99 1.01 0.99 0.98 0.97 0.95
0.34 0.31 0.29 0.31 0.37 0.36 0.34 0.32 0.41 0.41 0.46 0.55 0.62 0.67 0.70 0.78 0.83 0.81 0.81 0.82 0.84 0.87 0.87 0.88 0.88 0.90 0.90 0.89 0.88 0.87 0.85 0.88 0.90 0.91 0.91 0.93 0.92 0.93 0.96 0.96 0.97 0.97 0.95 0.91
0.38 0.30 0.22 0.30 0.39 0.45 0.48 0.30 0.53 0.59 0.60 0.60 0.66 0.55 0.65 0.78 0.81 0.81 0.83 0.83 0.80 0.82 0.89 0.92 0.94 0.94 0.89 0.91 0.95 0.93 0.92 0.87 0.89 0.89 0.90 0.91 0.91 0.94 0.96 0.96 0.94 0.92 0.88 0.86
0.35 0.33 0.32 0.42 0.48 0.55 0.35 0.34 0.60 0.66 0.67 0.67 0.65 0.71 0.81 0.84 0.84 0.83 0.82 0.81 0.82 0.83 0.83 0.85 0.88 0.85 0.80 0.82 0.88 0.91 0.91 0.88 0.91 0.92 0.92 0.94 0.95 0.96 0.95 0.93 0.91 0.86 0.81 0.77
0.40 0.37 0.28 0.53 0.52 0.42 0.51 0.65 0.69 0.70 0.70 0.70 0.75 0.78 0.79 0.84 0.84 0.82 0.81 0.81 0.84 0.77 0.75 0.81 0.85 0.83 0.79 0.79 0.84 0.87 0.88 0.88 0.88 0.90 0.93 0.94 0.95 0.93 0.91 0.88 0.82 0.78 0.76 0.76
0.43 0.40 0.53 0.62 0.62 0.72 0.76 0.73 0.73 0.74 0.76 0.75 0.77 0.75 0.77 0.75 0.76 0.80 0.81 0.83 0.86 0.84 0.79 0.80 0.84 0.85 0.77 0.83 0.90 0.92 0.93 0.92 0.92 0.92 0.92 0.91 0.89 0.87 0.83 0.80 0.76 0.73 0.70 0.70
0.51 0.52 0.57 0.65 0.73 0.76 0.78 0.75 0.78 0.79 0.78 0.82 0.74 0.74 0.73 0.71 0.69 0.71 0.73 0.73 0.77 0.78 0.77 0.76 0.79 0.79 0.79 0.83 0.85 0.85 0.81 0.82 0.84 0.83 0.82 0.80 0.81 0.81 0.78 0.76 0.73 0.71 0.68 0.66
0.54 0.62 0.70 0.76 0.80 0.79 0.81 0.81 0.80 0.81 0.80 0.75 0.71 0.67 0.67 0.67 0.66 0.67 0.65 0.64 0.64 0.61 0.61 0.64 0.72 0.76 0.79 0.80 0.77 0.75 0.76 0.77 0.78 0.77 0.77 0.76 0.76 0.76 0.74 0.74 0.71 0.66 0.65 0.65
0.51 0.68 0.67 0.70 0.78 0.74 0.74 0.75 0.77 0.73 0.69 0.67 0.67 0.63 0.64 0.62 0.63 0.59 0.56 0.58 0.57 0.56 0.56 0.62 0.67 0.66 0.70 0.74 0.75 0.73 0.72 0.73 0.73 0.74 0.74 0.73 0.71 0.69 0.73 0.71 0.71 0.70 0.68 0.65
0.63 0.72 0.71 0.71 0.69 0.67 0.66 0.68 0.66 0.63 0.61 0.57 0.58 0.60 0.59 0.58 0.56 0.57 0.57 0.57 0.53 0.51 0.53 0.55 0.58 0.59 0.64 0.66 0.68 0.68 0.66 0.69 0.69 0.69 0.67 0.64 0.63 0.63 0.59 0.64 0.66 0.65 0.63 0.61
0.61 0.57 0.52 0.52 0.48 0.51 0.52 0.52 0.57 0.55 0.55 0.54 0.53 0.54 0.53 0.51 0.50 0.49 0.48 0.49 0.51 0.51 0.51 0.53 0.53 0.54 0.59 0.61 0.61 0.59 0.59 0.60 0.60 0.59 0.58 0.57 0.57 0.56 0.56 0.53 0.52 0.53 0.57 0.58
0.48 0.50 0.47 0.45 0.45 0.45 0.46 0.46 0.44 0.44 0.46 0.47 0.49 0.49 0.49 0.46 0.46 0.47 0.48 0.48 0.48 0.47 0.47 0.48 0.48 0.49 0.53 0.53 0.54 0.55 0.54 0.54 0.54 0.53 0.53 0.52 0.52 0.51 0.51 0.50 0.49 0.50 0.51 0.54
0.40 0.42 0.41 0.40 0.42 0.44 0.44 0.43 0.37 0.39 0.41 0.42 0.44 0.44 0.44 0.44 0.44 0.42 0.43 0.43 0.41 0.39 0.42 0.43 0.44 0.46 0.49 0.50 0.50 0.50 0.51 0.51 0.50 0.49 0.49 0.48 0.48 0.47 0.46 0.46 0.46 0.46 0.46 0.47
0.34 0.32 0.33 0.32 0.33 0.33 0.33 0.35 0.36 0.37 0.39 0.40 0.41 0.42 0.41 0.40 0.38 0.38 0.39 0.40 0.40 0.40 0.41 0.41 0.40 0.43 0.44 0.45 0.45 0.44 0.44 0.44 0.46 0.45 0.44 0.44 0.44 0.44 0.44 0.44 0.44 0.45 0.45 0.48
0.38 0.37 0.36 0.34 0.32 0.32 0.33 0.36 0.37 0.38 0.37 0.38 0.38 0.37 0.36 0.35 0.34 0.35 0.36 0.37 0.38 0.37 0.37 0.37 0.39 0.39 0.40 0.40 0.39 0.38 0.37 0.37 0.36 0.36 0.37 0.37 0.37 0.39 0.40 0.41 0.42 0.42 0.44 0.46
0.32 0.31 0.32 0.32 0.33 0.33 0.33 0.33 0.34 0.35 0.36 0.37 0.36 0.35 0.35 0.34 0.33 0.34 0.35 0.33 0.31 0.28 0.30 0.32 0.32 0.32 0.32 0.34 0.35 0.35 0.33 0.32 0.31 0.32 0.32 0.32 0.32 0.34 0.34 0.35 0.36 0.38 0.40 0.40
0.29 0.30 0.31 0.31 0.33 0.34 0.33 0.35 0.36 0.36 0.38 0.37 0.35 0.32 0.30 0.30 0.30 0.30 0.29 0.26 0.26 0.27 0.31 0.31 0.30 0.30 0.30 0.31 0.32 0.32 0.31 0.31 0.30 0.30 0.30 0.30 0.30 0.30 0.30 0.31 0.33 0.36 0.38 0.39
0.29 0.31 0.33 0.34 0.35 0.37 0.37 0.38 0.37 0.35 0.35 0.32 0.29 0.28 0.26 0.27 0.26 0.25 0.23 0.22 0.25 0.27 0.29 0.28 0.27 0.26 0.26 0.25 0.26 0.27 0.28 0.28 0.29 0.29 0.30 0.29 0.28 0.27 0.27 0.27 0.28 0.32 0.36 0.39
0.32 0.33 0.35 0.35 0.33 0.33 0.33 0.32 0.30 0.28 0.26 0.24 0.23 0.23 0.22 0.22 0.24 0.24 0.25 0.23 0.23 0.23 0.22 0.21 0.20 0.19 0.18 0.17 0.16 0.16 0.17 0.19 0.22 0.24 0.24 0.24 0.24 0.22 0.22 0.23 0.23 0.25 0.29 0.33
0.34 0.34 0.33 0.32 0.31 0.29 0.27 0.25 0.23 0.21 0.21 0.20 0.20 0.20 0.21 0.21 0.19 0.16 0.14 0.17 0.17 0.17 0.16 0.15 0.15 0.15 0.16 0.16 0.16 0.15 0.15 0.15 0.15 0.17 0.18 0.21 0.20 0.18 0.19 0.20 0.22 0.25 0.28 0.29
0.33 0.33 0.31 0.31 0.28 0.24 0.21 0.22 0.23 0.22 0.22 0.22 0.22 0.21 0.17 0.14 0.14 0.15 0.16 0.16 0.16 0.15 0.15 0.16 0.16 0.18 0.18 0.18 0.18 0.18 0.19 0.18 0.19 0.20 0.21 0.21 0.20 0.21 0.22 0.21 0.21 0.23 0.25 0.27
0.31 0.31 0.30 0.27 0.25 0.23 0.23 0.25 0.23 0.23 0.24 0.23 0.21 0.18 0.16 0.16 0.13 0.15 0.15 0.16 0.16 0.16 0.15 0.16 0.16 0.17 0.17 0.16 0.16 0.17 0.17 0.18 0.19 0.19 0.19 0.19 0.20 0.20 0.21 0.21 0.22 0.22 0.24 0.25
0.30 0.28 0.28 0.26 0.25 0.25 0.25 0.24 0.24 0.24 0.23 0.19 0.17 0.16 0.15 0.15 0.15 0.15 0.15 0.15 0.15 0.15 0.15 0.15 0.16 0.16 0.16 0.16 0.16 0.17 0.17 0.17 0.18 0.18 0.18 0.19 0.19 0.20 0.20 0.20 0.20 0.21 0.21 0.22
0.28 0.27 0.26 0.26 0.27 0.26 0.25 0.24 0.23 0.21 0.18 0.16 0.14 0.15 0.14 0.14 0.14 0.14 0.14 0.14 0.14 0.14 0.15 0.15 0.16 0.16 0.16 0.17 0.17 0.17 0.18 0.18 0.18 0.19 0.19 0.19 0.19 0.19 0.19 0.19 0.20 0.20 0.20 0.20

GFSNGP_prec_pwat_243.txt.gz
Precipitable_Water
0.33 0.34 0.33 0.31 0.32 0.34 0.34 0.35 0.31 0.31 0.26 0.29 0.34 0.34 0.32 0.35 0.40 0.44 0.46 0.54 0.59 0.68 0.71 0.70 0.73 0.75 0.85 0.94 0.97 1.02 1.04 1.05 1.05 1.12 1.17 1.18 1.19 1.21 1.22 1.20 1.18 1.19 1.17 1.19
0.36 0.40 0.38 0.32 0.32 0.32 0.33 0.33 0.30 0.30 0.27 0.34 0.36 0.36 0.38 0.43 0.47 0.48 0.54 0.60 0.64 0.72 0.77 0.78 0.79 0.80 0.82 0.85 0.89 0.97 1.01 1.06 1.14 1.17 1.19 1.16 1.17 1.18 1.19 1.16 1.14 1.15 1.14 1.15
0.32 0.40 0.40 0.33 0.31 0.34 0.35 0.38 0.36 0.29 0.30 0.38 0.38 0.40 0.44 0.47 0.51 0.58 0.64 0.68 0.70 0.77 0.82 0.85 0.86 0.88 0.87 0.90 0.94 0.97 1.00 1.04 1.10 1.14 1.15 1.14 1.17 1.16 1.12 1.09 1.09 1.11 1.09 1.03
0.35 0.38 0.27 0.33 0.41 0.37 0.34 0.36 0.38 0.37 0.37 0.39 0.40 0.45 0.52 0.59 0.61 0.64 0.70 0.73 0.77 0.82 0.85 0.88 0.89 0.88 0.92 0.94 0.96 0.96 0.97 1.02 1.09 1.15 1.17 1.19 1.19 1.14 1.12 1.10 1.09 1.07 1.06 1.04
0.35 0.32 0.33 0.36 0.40 0.38 0.34 0.32 0.41 0.39 0.38 0.42 0.49 0.55 0.56 0.65 0.69 0.71 0.75 0.78 0.79 0.84 0.88 0.90 0.90 0.90 0.90 0.90 0.91 0.90 0.90 0.93 0.99 1.02 1.02 1.05 1.01 0.99 1.01 1.03 1.04 1.06 1.04 1.01
0.41 0.32 0.25 0.34 0.41 0.47 0.46 0.28 0.42 0.43 0.47 0.50 0.54 0.43 0.56 0.73 0.78 0.79 0.83 0.84 0.82 0.82 0.83 0.83 0.84 0.85 0.81 0.81 0.84 0.85 0.87 0.88 0.92 0.92 0.94 0.95 0.97 1.02 1.04 1.02 1.03 1.05 1.04 1.04
0.36 0.33 0.34 0.44 0.47 0.51 0.31 0.29 0.49 0.55 0.57 0.58 0.55 0.62 0.70 0.77 0.79 0.84 0.89 0.88 0.89 0.86 0.83 0.82 0.85 0.84 0.80 0.77 0.75 0.79 0.83 0.83 0.82 0.83 0.84 0.87 0.90 0.94 0.97 1.03 1.03 1.03 1.00 0.96
0.39 0.34 0.27 0.51 0.49 0.39 0.43 0.54 0.57 0.62 0.62 0.60 0.62 0.66 0.70 0.74 0.75 0.77 0.79 0.82 0.83 0.82 0.84 0.84 0.83 0.77 0.73 0.72 0.75 0.75 0.75 0.77 0.80 0.83 0.86 0.89 0.89 0.93 0.91 0.93 0.94 0.96 0.90 0.88
0.39 0.38 0.53 0.60 0.56 0.62 0.64 0.62 0.65 0.65 0.66 0.68 0.69 0.72 0.76 0.78 0.82 0.83 0.81 0.76 0.78 0.75 0.72 0.70 0.72 0.74 0.69 0.70 0.72 0.74 0.72 0.71 0.72 0.75 0.78 0.81 0.83 0.85 0.86 0.89 0.87 0.84 0.82 0.78
0.46 0.51 0.56 0.61 0.67 0.68 0.71 0.70 0.73 0.75 0.75 0.76 0.74 0.75 0.74 0.78 0.76 0.76 0.75 0.71 0.73 0.69 0.65 0.63 0.65 0.65 0.65 0.68 0.69 0.67 0.66 0.66 0.68 0.69 0.70 0.74 0.77 0.80 0.81 0.79 0.75 0.74 0.73 0.70
0.51 0.58 0.62 0.65 0.70 0.73 0.74 0.77 0.76 0.77 0.77 0.77 0.76 0.75 0.77 0.74 0.71 0.70 0.66 0.64 0.63 0.60 0.59 0.58 0.59 0.59 0.64 0.64 0.63 0.62 0.62 0.61 0.62 0.64 0.65 0.67 0.71 0.73 0.72 0.73 0.73 0.68 0.67 0.67
0.49 0.62 0.65 0.69 0.75 0.75 0.73 0.71 0.73 0.75 0.74 0.76 0.75 0.71 0.71 0.69 0.71 0.63 0.59 0.57 0.55 0.53 0.50 0.50 0.51 0.51 0.53 0.54 0.56 0.56 0.56 0.58 0.60 0.59 0.60 0.60 0.59 0.60 0.67 0.68 0.69 0.67 0.66 0.64
0.66 0.76 0.73 0.74 0.74 0.73 0.68 0.67 0.68 0.70 0.70 0.69 0.67 0.65 0.62 0.60 0.57 0.56 0.54 0.52 0.51 0.50 0.50 0.48 0.47 0.48 0.50 0.52 0.53 0.51 0.49 0.51 0.53 0.54 0.56 0.56 0.56 0.55 0.53 0.59 0.61 0.61 0.61 0.61
0.72 0.71 0.65 0.66 0.59 0.61 0.61 0.58 0.60 0.60 0.59 0.58 0.56 0.56 0.55 0.54 0.54 0.52 0.50 0.50 0.50 0.46 0.44 0.44 0.43 0.42 0.45 0.47 0.47 0.47 0.48 0.48 0.50 0.52 0.52 0.51 0.50 0.50 0.51 0.49 0.49 0.51 0.56 0.57
0.62 0.63 0.57 0.58 0.57 0.55 0.54 0.53 0.51 0.51 0.52 0.51 0.53 0.51 0.50 0.48 0.47 0.45 0.45 0.43 0.43 0.41 0.40 0.40 0.40 0.41 0.45 0.46 0.45 0.45 0.45 0.46 0.47 0.48 0.49 0.49 0.48 0.47 0.47 0.46 0.46 0.47 0.48 0.51
0.55 0.54 0.52 0.48 0.48 0.48 0.48 0.47 0.44 0.42 0.42 0.42 0.42 0.42 0.43 0.43 0.41 0.40 0.40 0.40 0.37 0.35 0.37 0.37 0.37 0.39 0.41 0.41 0.41 0.42 0.42 0.43 0.43 0.43 0.42 0.42 0.43 0.43 0.43 0.43 0.43 0.43 0.44 0.45
0.41 0.40 0.42 0.40 0.38 0.38 0.38 0.38 0.38 0.38 0.39 0.39 0.40 0.40 0.38 0.37 0.36 0.35 0.36 0.37 0.37 0.35 0.35 0.35 0.34 0.36 0.37 0.37 0.36 0.36 0.36 0.37 0.37 0.37 0.36 0.36 0.36 0.37 0.38 0.38 0.39 0.41 0.42 0.46
0.43 0.40 0.38 0.37 0.35 0.35 0.35 0.36 0.36 0.37 0.35 0.36 0.35 0.34 0.34 0.34 0.33 0.33 0.34 0.36 0.34 0.32 0.31 0.30 0.31 0.31 0.31 0.31 0.31 0.31 0.30 0.29 0.29 0.29 0.30 0.29 0.30 0.32 0.32 0.33 0.34 0.36 0.39 0.42
0.40 0.37 0.36 0.35 0.35 0.33 0.32 0.32 0.32 0.33 0.34 0.34 0.33 0.32 0.32 0.32 0.31 0.31 0.30 0.28 0.26 0.25 0.26 0.29 0.29 0.28 0.27 0.28 0.28 0.30 0.30 0.29 0.28 0.28 0.28 0.28 0.28 0.28 0.27 0.28 0.29 0.31 0.35 0.36
0.32 0.33 0.32 0.31 0.32 0.31 0.31 0.33 0.34 0.34 0.34 0.33 0.31 0.29 0.27 0.27 0.27 0.26 0.25 0.22 0.22 0.23 0.27 0.27 0.27 0.25 0.24 0.24 0.24 0.24 0.24 0.25 0.26 0.26 0.27 0.28 0.28 0.27 0.27 0.27 0.27 0.26 0.29 0.35
0.29 0.30 0.29 0.30 0.31 0.33 0.35 0.35 0.34 0.32 0.30 0.29 0.26 0.24 0.23 0.23 0.23 0.24 0.23 0.22 0.24 0.24 0.23 0.21 0.19 0.18 0.17 0.16 0.15 0.14 0.15 0.16 0.18 0.20 0.23 0.24 0.24 0.25 0.24 0.24 0.23 0.24 0.25 0.29
0.29 0.30 0.30 0.32 0.32 0.31 0.32 0.30 0.28 0.26 0.26 0.24 0.22 0.22 0.21 0.21 0.23 0.22 0.20 0.16 0.17 0.17 0.16 0.15 0.14 0.15 0.16 0.17 0.17 0.16 0.16 0.15 0.14 0.14 0.15 0.18 0.21 0.21 0.20 0.19 0.17 0.19 0.21 0.24
0.31 0.32 0.32 0.30 0.30 0.29 0.28 0.26 0.24 0.22 0.21 0.20 0.19 0.20 0.20 0.18 0.16 0.12 0.10 0.14 0.15 0.14 0.15 0.15 0.16 0.17 0.17 0.17 0.17 0.17 0.17 0.17 0.17 0.17 0.16 0.16 0.18 0.19 0.18 0.19 0.19 0.19 0.20 0.23
0.32 0.31 0.31 0.32 0.30 0.26 0.22 0.22 0.22 0.22 0.21 0.22 0.22 0.20 0.16 0.13 0.13 0.15 0.15 0.16 0.15 0.15 0.15 0.15 0.15 0.15 0.15 0.15 0.15 0.15 0.16 0.17 0.17 0.18 0.19 0.19 0.19 0.19 0.19 0.20 0.20 0.20 0.21 0.23
0.31 0.30 0.29 0.28 0.25 0.23 0.22 0.23 0.23 0.23 0.23 0.23 0.21 0.18 0.16 0.15 0.13 0.14 0.14 0.15 0.15 0.14 0.14 0.14 0.15 0.15 0.15 0.15 0.15 0.15 0.16 0.16 0.16 0.16 0.17 0.17 0.18 0.18 0.19 0.19 0.20 0.20 0.21 0.22
0.30 0.28 0.28 0.28 0.25 0.25 0.25 0.25 0.22 0.23 0.23 0.20 0.17 0.15 0.15 0.15 0.15 0.14 0.14 0.13 0.13 0.14 0.13 0.14 0.14 0.15 0.15 0.16 0.16 0.16 0.16 0.17 0.17 0.17 0.17 0.18 0.18 0.18 0.18 0.19 0.19 0.19 0.19 0.20
0.29 0.28 0.27 0.26 0.26 0.27 0.26 0.25 0.24 0.23 0.21 0.17 0.14 0.14 0.13 0.13 0.13 0.13 0.12 0.13 0.13 0.13 0.13 0.14 0.14 0.15 0.15 0.16 0.16 0.16 0.17 0.17 0.17 0.17 0.18 0.18 0.18 0.18 0.18 0.18 0.18 0.18 0.19 0.19

GFSNGP_prec_pwat_246.txt.gz
Precipitable_Water
0.34 0.33 0.33 0.29 0.29 0.33 0.32 0.32 0.31 0.32 0.36 0.42 0.44 0.42 0.41 0.37 0.40 0.41 0.42 0.44 0.51 0.58 0.65 0.70 0.75 0.79 0.81 0.83 0.82 0.89 0.96 1.04 1.05 1.11 1.16 1.20 1.22 1.24 1.27 1.26 1.26 1.29 1.30 1.27
0.36 0.38 0.37 0.33 0.37 0.36 0.36 0.39 0.39 0.39 0.35 0.43 0.47 0.41 0.37 0.40 0.42 0.42 0.48 0.56 0.62 0.66 0.71 0.73 0.77 0.84 0.88 0.90 0.91 0.93 0.93 0.98 1.06 1.09 1.14 1.18 1.22 1.26 1.31 1.32 1.29 1.31 1.27 1.26
0.34 0.42 0.42 0.36 0.35 0.36 0.37 0.40 0.37 0.32 0.34 0.41 0.37 0.38 0.40 0.42 0.46 0.52 0.57 0.62 0.65 0.70 0.75 0.79 0.82 0.87 0.89 0.91 0.96 0.97 0.99 1.02 1.06 1.10 1.11 1.16 1.23 1.26 1.29 1.29 1.28 1.21 1.20 1.19
0.38 0.41 0.28 0.35 0.42 0.42 0.39 0.41 0.44 0.42 0.40 0.39 0.40 0.45 0.49 0.54 0.55 0.57 0.62 0.65 0.70 0.74 0.79 0.84 0.88 0.90 0.91 0.90 0.88 0.89 0.92 0.95 0.97 0.97 1.00 1.06 1.10 1.11 1.15 1.19 1.16 1.13 1.11 1.09
0.38 0.34 0.37 0.39 0.42 0.41 0.39 0.35 0.40 0.40 0.44 0.48 0.53 0.53 0.52 0.59 0.63 0.65 0.69 0.73 0.77 0.82 0.85 0.88 0.87 0.89 0.87 0.84 0.86 0.85 0.83 0.84 0.87 0.90 0.92 0.93 0.92 0.94 0.99 1.02 1.03 1.02 1.05 1.04
0.40 0.35 0.28 0.39 0.51 0.54 0.50 0.30 0.43 0.46 0.46 0.47 0.51 0.39 0.49 0.65 0.70 0.74 0.79 0.84 0.85 0.89 0.89 0.89 0.92 0.91 0.86 0.85 0.84 0.81 0.82 0.82 0.82 0.82 0.82 0.80 0.82 0.83 0.87 0.90 0.90 0.92 0.93 0.97
0.36 0.33 0.36 0.47 0.52 0.54 0.33 0.31 0.47 0.50 0.50 0.50 0.48 0.54 0.63 0.69 0.70 0.74 0.75 0.76 0.80 0.82 0.80 0.76 0.79 0.80 0.77 0.77 0.77 0.81 0.79 0.79 0.78 0.77 0.77 0.78 0.80 0.81 0.81 0.83 0.86 0.87 0.89 0.92
0.38 0.34 0.27 0.52 0.50 0.38 0.44 0.55 0.57 0.58 0.58 0.56 0.60 0.63 0.67 0.70 0.72 0.75 0.77 0.79 0.79 0.81 0.80 0.77 0.77 0.74 0.70 0.70 0.74 0.74 0.73 0.71 0.71 0.71 0.72 0.73 0.72 0.73 0.74 0.76 0.78 0.81 0.82 0.83
0.38 0.36 0.50 0.57 0.52 0.57 0.59 0.55 0.59 0.60 0.61 0.62 0.62 0.66 0.70 0.71 0.74 0.78 0.81 0.79 0.79 0.77 0.75 0.75 0.73 0.70 0.64 0.66 0.69 0.66 0.64 0.63 0.65 0.66 0.66 0.66 0.64 0.63 0.64 0.66 0.66 0.65 0.68 0.67
0.42 0.46 0.51 0.55 0.60 0.63 0.64 0.62 0.65 0.67 0.68 0.70 0.69 0.73 0.74 0.74 0.75 0.77 0.81 0.76 0.78 0.76 0.71 0.65 0.64 0.62 0.59 0.59 0.59 0.56 0.54 0.53 0.55 0.56 0.56 0.57 0.57 0.57 0.57 0.57 0.58 0.59 0.60 0.59
0.47 0.55 0.59 0.64 0.67 0.68 0.67 0.69 0.69 0.74 0.74 0.75 0.75 0.73 0.73 0.73 0.78 0.78 0.74 0.71 0.66 0.60 0.57 0.56 0.58 0.56 0.56 0.55 0.54 0.52 0.50 0.48 0.48 0.49 0.49 0.48 0.52 0.54 0.55 0.57 0.58 0.56 0.58 0.59
0.44 0.57 0.56 0.59 0.67 0.69 0.68 0.70 0.74 0.75 0.74 0.77 0.77 0.74 0.74 0.73 0.71 0.68 0.65 0.61 0.58 0.53 0.51 0.51 0.51 0.49 0.49 0.50 0.47 0.44 0.41 0.41 0.41 0.43 0.46 0.49 0.50 0.52 0.59 0.59 0.60 0.60 0.60 0.59
0.59 0.68 0.68 0.74 0.75 0.77 0.71 0.71 0.71 0.71 0.71 0.68 0.68 0.67 0.64 0.59 0.59 0.57 0.55 0.53 0.51 0.48 0.47 0.44 0.43 0.43 0.45 0.46 0.45 0.43 0.40 0.41 0.42 0.44 0.44 0.43 0.44 0.44 0.43 0.49 0.54 0.56 0.57 0.58
0.73 0.72 0.69 0.74 0.70 0.74 0.70 0.67 0.68 0.66 0.65 0.65 0.63 0.62 0.59 0.54 0.53 0.51 0.50 0.50 0.48 0.45 0.43 0.42 0.40 0.39 0.41 0.43 0.42 0.40 0.40 0.40 0.41 0.41 0.41 0.41 0.41 0.41 0.41 0.40 0.40 0.42 0.48 0.49
0.71 0.70 0.69 0.71 0.66 0.64 0.64 0.62 0.58 0.57 0.57 0.56 0.57 0.53 0.52 0.48 0.45 0.45 0.46 0.44 0.41 0.39 0.37 0.37 0.36 0.35 0.38 0.39 0.37 0.37 0.37 0.37 0.37 0.38 0.38 0.38 0.38 0.38 0.38 0.38 0.38 0.38 0.41 0.44
0.68 0.65 0.61 0.58 0.58 0.59 0.58 0.56 0.52 0.50 0.50 0.47 0.45 0.44 0.44 0.43 0.42 0.39 0.38 0.37 0.34 0.32 0.33 0.34 0.33 0.34 0.35 0.34 0.32 0.31 0.31 0.31 0.31 0.31 0.31 0.31 0.31 0.32 0.34 0.34 0.34 0.35 0.37 0.39
0.59 0.55 0.55 0.53 0.51 0.50 0.48 0.47 0.45 0.41 0.40 0.40 0.40 0.41 0.39 0.36 0.34 0.33 0.34 0.35 0.34 0.32 0.32 0.30 0.29 0.30 0.30 0.28 0.29 0.28 0.28 0.27 0.26 0.26 0.25 0.25 0.26 0.26 0.27 0.28 0.28 0.30 0.33 0.38
0.56 0.53 0.50 0.46 0.41 0.38 0.37 0.38 0.39 0.39 0.38 0.38 0.36 0.34 0.33 0.32 0.30 0.31 0.32 0.31 0.30 0.28 0.28 0.27 0.27 0.26 0.25 0.25 0.25 0.26 0.26 0.26 0.27 0.26 0.27 0.26 0.26 0.27 0.27 0.26 0.25 0.25 0.26 0.31
0.48 0.43 0.40 0.38 0.37 0.36 0.36 0.35 0.34 0.35 0.34 0.34 0.33 0.31 0.30 0.29 0.29 0.28 0.27 0.25 0.22 0.20 0.22 0.24 0.25 0.24 0.23 0.22 0.21 0.19 0.19 0.20 0.20 0.22 0.25 0.26 0.26 0.27 0.26 0.26 0.25 0.26 0.26 0.25
0.40 0.39 0.38 0.36 0.36 0.33 0.31 0.33 0.34 0.33 0.34 0.32 0.30 0.28 0.26 0.25 0.25 0.23 0.21 0.19 0.21 0.22 0.24 0.21 0.18 0.15 0.14 0.14 0.14 0.14 0.13 0.13 0.13 0.13 0.16 0.18 0.21 0.22 0.23 0.25 0.25 0.24 0.24 0.24
0.35 0.34 0.32 0.31 0.32 0.34 0.34 0.35 0.33 0.31 0.30 0.29 0.26 0.23 0.22 0.21 0.21 0.22 0.21 0.18 0.17 0.16 0.14 0.14 0.14 0.15 0.16 0.17 0.17 0.16 0.16 0.16 0.15 0.15 0.14 0.14 0.15 0.18 0.20 0.20 0.20 0.19 0.19 0.20
0.31 0.30 0.31 0.32 0.32 0.32 0.33 0.32 0.29 0.27 0.25 0.24 0.23 0.20 0.18 0.18 0.19 0.17 0.15 0.13 0.14 0.14 0.15 0.15 0.15 0.16 0.16 0.16 0.16 0.15 0.15 0.15 0.16 0.16 0.16 0.15 0.15 0.15 0.16 0.17 0.17 0.17 0.17 0.17
0.32 0.31 0.31 0.31 0.30 0.28 0.28 0.27 0.26 0.23 0.21 0.20 0.17 0.18 0.19 0.17 0.14 0.11 0.10 0.15 0.15 0.15 0.15 0.14 0.14 0.14 0.14 0.14 0.14 0.14 0.14 0.14 0.15 0.16 0.16 0.17 0.17 0.18 0.18 0.18 0.18 0.18 0.18 0.18
0.32 0.32 0.31 0.31 0.30 0.27 0.23 0.23 0.22 0.22 0.21 0.20 0.21 0.20 0.16 0.13 0.13 0.15 0.16 0.15 0.14 0.14 0.13 0.13 0.14 0.14 0.14 0.14 0.14 0.14 0.15 0.15 0.15 0.15 0.15 0.16 0.16 0.17 0.17 0.18 0.18 0.19 0.19 0.20
0.32 0.31 0.30 0.29 0.25 0.24 0.23 0.22 0.23 0.22 0.22 0.21 0.20 0.18 0.15 0.15 0.13 0.14 0.14 0.13 0.13 0.13 0.13 0.13 0.13 0.14 0.14 0.14 0.14 0.15 0.15 0.15 0.16 0.16 0.16 0.16 0.16 0.17 0.17 0.18 0.18 0.18 0.19 0.19
0.31 0.30 0.29 0.27 0.26 0.25 0.24 0.24 0.23 0.22 0.22 0.20 0.18 0.15 0.14 0.14 0.14 0.13 0.12 0.12 0.12 0.12 0.12 0.13 0.13 0.14 0.14 0.14 0.15 0.15 0.16 0.16 0.16 0.16 0.17 0.17 0.17 0.17 0.17 0.17 0.17 0.18 0.18 0.18
0.31 0.29 0.27 0.27 0.27 0.25 0.26 0.26 0.23 0.22 0.22 0.18 0.14 0.14 0.14 0.13 0.12 0.12 0.12 0.12 0.12 0.12 0.12 0.13 0.13 0.14 0.14 0.15 0.15 0.15 0.16 0.16 0.16 0.16 0.17 0.17 0.17 0.17 0.17 0.17 0.17 0.17 0.18 0.18

GFSNGP_prec_pwat_252.txt.gz
Precipitable_Water
0.40 0.40 0.40 0.38 0.36 0.36 0.34 0.31 0.27 0.27 0.28 0.30 0.39 0.45 0.49 0.52 0.57 0.61 0.60 0.60 0.60 0.62 0.65 0.67 0.67 0.70 0.74 0.77 0.80 0.83 0.83 0.87 0.89 0.94 1.00 1.07 1.12 1.19 1.23 1.29 1.33 1.37 1.35 1.36
0.40 0.40 0.40 0.37 0.40 0.37 0.34 0.35 0.34 0.32 0.32 0.36 0.44 0.51 0.52 0.54 0.59 0.58 0.56 0.57 0.60 0.64 0.67 0.68 0.70 0.71 0.76 0.78 0.81 0.85 0.85 0.85 0.88 0.90 0.95 1.00 1.03 1.04 1.08 1.13 1.17 1.21 1.23 1.30
0.35 0.38 0.41 0.38 0.38 0.38 0.37 0.37 0.37 0.33 0.34 0.40 0.43 0.47 0.52 0.58 0.60 0.58 0.57 0.59 0.60 0.63 0.68 0.71 0.73 0.76 0.75 0.77 0.80 0.77 0.80 0.86 0.88 0.90 0.89 0.89 0.95 0.98 1.00 1.02 1.05 1.03 1.03 1.05
0.41 0.47 0.32 0.38 0.52 0.47 0.43 0.43 0.44 0.41 0.41 0.44 0.49 0.53 0.57 0.61 0.59 0.58 0.59 0.61 0.65 0.70 0.74 0.76 0.78 0.78 0.80 0.76 0.75 0.74 0.73 0.76 0.79 0.85 0.89 0.87 0.85 0.83 0.83 0.84 0.84 0.86 0.88 0.91
0.38 0.40 0.44 0.41 0.42 0.46 0.45 0.42 0.48 0.44 0.46 0.49 0.55 0.59 0.58 0.63 0.65 0.63 0.66 0.70 0.73 0.77 0.76 0.76 0.76 0.77 0.76 0.74 0.74 0.72 0.73 0.75 0.76 0.78 0.81 0.92 0.81 0.80 0.79 0.78 0.78 0.79 0.79 0.78
0.43 0.34 0.26 0.33 0.52 0.59 0.56 0.38 0.50 0.53 0.52 0.54 0.58 0.48 0.52 0.63 0.67 0.70 0.73 0.75 0.76 0.75 0.75 0.74 0.75 0.78 0.76 0.74 0.73 0.71 0.72 0.73 0.75 0.73 0.70 0.69 0.71 0.70 0.68 0.70 0.67 0.66 0.65 0.66
0.35 0.31 0.29 0.39 0.52 0.59 0.41 0.33 0.54 0.54 0.56 0.58 0.57 0.61 0.67 0.71 0.71 0.73 0.75 0.75 0.75 0.73 0.72 0.73 0.77 0.78 0.74 0.72 0.72 0.76 0.76 0.73 0.72 0.68 0.63 0.62 0.63 0.63 0.60 0.59 0.57 0.55 0.54 0.56
0.34 0.27 0.21 0.46 0.50 0.42 0.46 0.60 0.59 0.60 0.63 0.62 0.67 0.67 0.70 0.72 0.73 0.75 0.74 0.74 0.74 0.72 0.73 0.77 0.78 0.76 0.71 0.69 0.72 0.70 0.66 0.61 0.58 0.54 0.52 0.51 0.52 0.53 0.53 0.52 0.49 0.49 0.50 0.51
0.34 0.26 0.46 0.60 0.56 0.61 0.63 0.60 0.63 0.63 0.67 0.66 0.65 0.64 0.67 0.69 0.72 0.72 0.72 0.73 0.75 0.76 0.75 0.75 0.72 0.69 0.64 0.63 0.62 0.57 0.53 0.50 0.49 0.49 0.49 0.49 0.47 0.46 0.46 0.46 0.44 0.43 0.44 0.45
0.40 0.41 0.51 0.57 0.64 0.66 0.66 0.62 0.65 0.68 0.71 0.69 0.64 0.68 0.69 0.72 0.72 0.72 0.74 0.75 0.77 0.75 0.71 0.67 0.66 0.62 0.55 0.51 0.49 0.47 0.45 0.44 0.45 0.44 0.44 0.45 0.45 0.45 0.43 0.42 0.42 0.42 0.42 0.42
0.42 0.52 0.57 0.60 0.63 0.64 0.66 0.68 0.69 0.70 0.68 0.68 0.70 0.70 0.71 0.74 0.75 0.76 0.77 0.76 0.75 0.70 0.64 0.58 0.55 0.50 0.48 0.46 0.45 0.42 0.41 0.41 0.41 0.41 0.40 0.40 0.41 0.40 0.39 0.41 0.40 0.38 0.39 0.40
0.38 0.54 0.47 0.49 0.62 0.68 0.64 0.65 0.71 0.70 0.70 0.74 0.75 0.73 0.77 0.76 0.79 0.78 0.74 0.71 0.66 0.61 0.57 0.52 0.48 0.45 0.44 0.44 0.42 0.39 0.37 0.37 0.36 0.36 0.35 0.35 0.34 0.34 0.39 0.38 0.38 0.40 0.41 0.40
0.48 0.55 0.55 0.59 0.65 0.71 0.68 0.71 0.75 0.76 0.78 0.75 0.79 0.80 0.79 0.77 0.76 0.71 0.66 0.63 0.58 0.54 0.49 0.44 0.40 0.38 0.39 0.39 0.37 0.36 0.34 0.32 0.32 0.31 0.29 0.27 0.26 0.26 0.25 0.31 0.35 0.36 0.37 0.38
0.63 0.60 0.58 0.65 0.63 0.72 0.74 0.77 0.79 0.79 0.79 0.78 0.79 0.79 0.77 0.70 0.66 0.62 0.58 0.56 0.52 0.46 0.41 0.38 0.36 0.35 0.37 0.37 0.35 0.32 0.31 0.28 0.27 0.25 0.25 0.24 0.24 0.24 0.25 0.24 0.23 0.26 0.32 0.34
0.60 0.62 0.63 0.67 0.71 0.73 0.75 0.75 0.72 0.72 0.74 0.75 0.76 0.72 0.68 0.62 0.58 0.54 0.51 0.46 0.41 0.37 0.36 0.35 0.33 0.31 0.32 0.31 0.28 0.26 0.25 0.25 0.26 0.26 0.26 0.26 0.26 0.26 0.25 0.25 0.24 0.24 0.25 0.28
0.64 0.66 0.68 0.67 0.70 0.72 0.71 0.72 0.70 0.70 0.68 0.67 0.63 0.60 0.57 0.53 0.49 0.43 0.41 0.38 0.34 0.32 0.32 0.30 0.28 0.27 0.25 0.23 0.23 0.24 0.24 0.23 0.22 0.21 0.22 0.24 0.24 0.23 0.23 0.24 0.25 0.25 0.25 0.26
0.58 0.58 0.62 0.65 0.68 0.69 0.69 0.70 0.68 0.64 0.62 0.58 0.54 0.50 0.46 0.42 0.39 0.36 0.35 0.35 0.33 0.30 0.28 0.25 0.22 0.22 0.21 0.20 0.18 0.17 0.17 0.17 0.16 0.17 0.17 0.17 0.19 0.21 0.23 0.22 0.22 0.24 0.25 0.28
0.67 0.68 0.70 0.70 0.68 0.68 0.67 0.65 0.63 0.60 0.54 0.50 0.46 0.43 0.38 0.35 0.32 0.32 0.32 0.30 0.28 0.24 0.21 0.19 0.19 0.19 0.18 0.16 0.16 0.18 0.18 0.17 0.17 0.17 0.17 0.17 0.16 0.17 0.17 0.20 0.22 0.21 0.23 0.26
0.70 0.68 0.67 0.67 0.66 0.63 0.60 0.58 0.54 0.49 0.45 0.43 0.39 0.35 0.34 0.33 0.31 0.29 0.27 0.22 0.19 0.16 0.17 0.18 0.16 0.16 0.15 0.16 0.16 0.17 0.16 0.16 0.15 0.15 0.16 0.16 0.17 0.16 0.16 0.17 0.20 0.19 0.19 0.20
0.66 0.65 0.64 0.61 0.61 0.56 0.50 0.46 0.43 0.41 0.39 0.37 0.34 0.32 0.30 0.28 0.25 0.21 0.18 0.14 0.16 0.17 0.17 0.16 0.15 0.15 0.14 0.14 0.14 0.15 0.15 0.15 0.15 0.15 0.16 0.16 0.17 0.17 0.18 0.18 0.18 0.18 0.18 0.18
0.59 0.58 0.54 0.49 0.44 0.42 0.41 0.40 0.36 0.33 0.34 0.34 0.30 0.26 0.23 0.21 0.20 0.18 0.17 0.16 0.16 0.16 0.16 0.15 0.13 0.13 0.13 0.14 0.15 0.16 0.15 0.15 0.15 0.15 0.15 0.15 0.16 0.16 0.17 0.18 0.18 0.18 0.18 0.18
0.47 0.43 0.41 0.40 0.37 0.36 0.37 0.36 0.34 0.32 0.29 0.26 0.24 0.20 0.17 0.15 0.15 0.16 0.16 0.14 0.15 0.15 0.14 0.13 0.13 0.13 0.14 0.15 0.15 0.15 0.15 0.15 0.15 0.16 0.16 0.16 0.16 0.16 0.16 0.16 0.17 0.17 0.18 0.18
0.40 0.38 0.37 0.36 0.34 0.33 0.33 0.32 0.29 0.26 0.23 0.21 0.18 0.16 0.16 0.17 0.17 0.14 0.12 0.14 0.14 0.14 0.13 0.13 0.13 0.14 0.15 0.15 0.15 0.15 0.15 0.15 0.15 0.15 0.16 0.16 0.16 0.16 0.16 0.17 0.17 0.17 0.18 0.18
0.37 0.36 0.35 0.35 0.34 0.31 0.26 0.25 0.24 0.23 0.20 0.18 0.16 0.17 0.17 0.16 0.14 0.15 0.14 0.13 0.13 0.13 0.13 0.13 0.13 0.14 0.15 0.15 0.15 0.15 0.15 0.15 0.15 0.16 0.16 0.16 0.16 0.16 0.17 0.17 0.17 0.17 0.17 0.18
0.35 0.35 0.34 0.31 0.27 0.25 0.25 0.24 0.23 0.22 0.19 0.16 0.17 0.18 0.17 0.17 0.15 0.15 0.14 0.13 0.13 0.14 0.13 0.13 0.13 0.14 0.14 0.14 0.14 0.14 0.15 0.15 0.15 0.16 0.16 0.16 0.16 0.16 0.16 0.16 0.16 0.17 0.17 0.17
0.35 0.33 0.31 0.30 0.28 0.27 0.27 0.26 0.22 0.21 0.18 0.18 0.18 0.16 0.16 0.15 0.14 0.13 0.13 0.13 0.13 0.13 0.13 0.13 0.13 0.14 0.14 0.14 0.14 0.14 0.15 0.15 0.15 0.15 0.16 0.16 0.16 0.16 0.16 0.16 0.16 0.16 0.17 0.17
0.35 0.32 0.30 0.29 0.30 0.29 0.28 0.25 0.22 0.19 0.18 0.17 0.15 0.15 0.15 0.14 0.13 0.13 0.13 0.13 0.13 0.13 0.13 0.13 0.13 0.13 0.14 0.14 0.14 0.14 0.15 0.15 0.15 0.15 0.16 0.16 0.16 0.16 0.16 0.16 0.16 0.17 0.17 0.17

GFSNGP_prec_pwat_258.txt.gz
Precipitable_Water
0.29 0.34 0.40 0.38 0.41 0.44 0.45 0.41 0.37 0.35 0.43 0.41 0.43 0.42 0.45 0.51 0.60 0.67 0.68 0.68 0.72 0.74 0.74 0.74 0.73 0.73 0.75 0.75 0.76 0.78 0.78 0.78 0.77 0.78 0.79 0.78 0.77 0.78 0.79 0.80 0.83 0.87 0.90 0.94
0.18 0.24 0.31 0.34 0.33 0.31 0.39 0.41 0.37 0.36 0.35 0.40 0.47 0.50 0.50 0.48 0.64 0.69 0.71 0.75 0.77 0.79 0.75 0.73 0.74 0.74 0.75 0.75 0.77 0.78 0.75 0.75 0.78 0.78 0.78 0.76 0.74 0.72 0.75 0.75 0.80 0.81 0.82 0.87
0.12 0.19 0.29 0.24 0.26 0.30 0.32 0.36 0.37 0.32 0.31 0.44 0.46 0.51 0.51 0.54 0.65 0.63 0.68 0.72 0.78 0.78 0.76 0.75 0.77 0.76 0.74 0.78 0.81 0.78 0.77 0.79 0.78 0.75 0.72 0.72 0.72 0.72 0.70 0.72 0.75 0.72 0.71 0.71
0.16 0.18 0.11 0.15 0.26 0.34 0.32 0.34 0.39 0.40 0.35 0.41 0.49 0.56 0.55 0.70 0.68 0.63 0.74 0.77 0.79 0.79 0.79 0.77 0.77 0.77 0.79 0.79 0.79 0.78 0.76 0.75 0.75 0.71 0.69 0.69 0.68 0.67 0.65 0.66 0.62 0.64 0.66 0.66
0.14 0.12 0.15 0.12 0.12 0.30 0.38 0.35 0.40 0.37 0.38 0.41 0.45 0.57 0.60 0.66 0.86 0.71 0.80 0.83 0.84 0.84 0.80 0.78 0.77 0.80 0.80 0.79 0.78 0.78 0.76 0.74 0.71 0.68 0.65 0.64 0.62 0.60 0.60 0.57 0.56 0.56 0.57 0.56
0.18 0.13 0.10 0.08 0.16 0.35 0.46 0.26 0.50 0.53 0.43 0.40 0.48 0.45 0.56 0.70 0.78 0.86 0.85 0.87 0.88 0.85 0.81 0.78 0.80 0.82 0.79 0.77 0.78 0.77 0.76 0.72 0.70 0.65 0.61 0.58 0.55 0.53 0.55 0.55 0.53 0.54 0.52 0.53
0.20 0.18 0.17 0.13 0.16 0.31 0.28 0.26 0.54 0.66 0.64 0.52 0.51 0.55 0.66 0.73 0.80 0.90 0.91 0.87 0.85 0.79 0.75 0.77 0.81 0.83 0.78 0.77 0.74 0.76 0.74 0.70 0.64 0.58 0.53 0.54 0.54 0.54 0.52 0.49 0.48 0.47 0.46 0.47
0.18 0.17 0.14 0.23 0.23 0.24 0.32 0.47 0.57 0.71 0.68 0.61 0.64 0.63 0.77 0.77 0.83 0.89 0.84 0.81 0.79 0.75 0.76 0.80 0.83 0.81 0.76 0.72 0.74 0.72 0.67 0.59 0.54 0.54 0.55 0.53 0.50 0.48 0.46 0.43 0.41 0.39 0.38 0.38
0.18 0.18 0.22 0.22 0.31 0.41 0.43 0.43 0.59 0.76 0.82 0.71 0.67 0.70 0.74 0.78 0.83 0.89 0.86 0.81 0.83 0.80 0.79 0.81 0.80 0.76 0.70 0.70 0.68 0.62 0.55 0.53 0.52 0.52 0.51 0.48 0.44 0.42 0.39 0.38 0.35 0.32 0.32 0.31
0.21 0.19 0.21 0.26 0.29 0.34 0.43 0.53 0.69 0.80 0.87 0.74 0.68 0.73 0.74 0.78 0.83 0.84 0.84 0.84 0.84 0.83 0.76 0.73 0.74 0.72 0.69 0.66 0.60 0.55 0.51 0.49 0.48 0.45 0.43 0.42 0.40 0.37 0.33 0.31 0.28 0.27 0.25 0.25
0.21 0.26 0.26 0.26 0.27 0.34 0.41 0.51 0.68 0.79 0.90 0.79 0.72 0.75 0.79 0.82 0.83 0.84 0.83 0.82 0.79 0.74 0.73 0.72 0.70 0.68 0.63 0.57 0.53 0.48 0.46 0.44 0.40 0.40 0.38 0.35 0.33 0.31 0.30 0.31 0.30 0.26 0.26 0.26
0.17 0.20 0.24 0.22 0.26 0.31 0.39 0.45 0.60 0.78 0.82 0.80 0.75 0.72 0.76 0.78 0.82 0.81 0.79 0.77 0.74 0.74 0.71 0.69 0.67 0.60 0.55 0.52 0.48 0.44 0.40 0.39 0.37 0.34 0.31 0.29 0.27 0.26 0.30 0.31 0.30 0.30 0.31 0.30
0.28 0.30 0.30 0.28 0.33 0.40 0.41 0.48 0.62 0.71 0.81 0.71 0.72 0.71 0.77 0.78 0.78 0.76 0.76 0.75 0.72 0.70 0.68 0.65 0.56 0.50 0.48 0.45 0.43 0.40 0.37 0.34 0.32 0.29 0.27 0.26 0.25 0.23 0.21 0.25 0.26 0.25 0.26 0.31
0.30 0.29 0.29 0.35 0.37 0.46 0.58 0.65 0.78 0.83 0.76 0.76 0.76 0.79 0.80 0.76 0.76 0.75 0.75 0.73 0.71 0.67 0.61 0.52 0.47 0.43 0.41 0.38 0.34 0.32 0.30 0.28 0.25 0.23 0.23 0.22 0.22 0.23 0.23 0.21 0.21 0.22 0.28 0.27
0.32 0.36 0.39 0.43 0.50 0.60 0.66 0.73 0.76 0.69 0.73 0.74 0.75 0.76 0.75 0.74 0.73 0.71 0.71 0.68 0.64 0.57 0.48 0.42 0.37 0.34 0.32 0.28 0.28 0.27 0.26 0.23 0.22 0.22 0.23 0.22 0.22 0.21 0.20 0.19 0.19 0.20 0.20 0.22
0.38 0.45 0.56 0.55 0.56 0.61 0.71 0.72 0.73 0.68 0.70 0.72 0.74 0.75 0.74 0.72 0.69 0.66 0.63 0.57 0.47 0.40 0.37 0.32 0.28 0.26 0.24 0.24 0.26 0.24 0.24 0.22 0.20 0.20 0.18 0.17 0.16 0.16 0.16 0.17 0.18 0.19 0.19 0.21
0.45 0.44 0.54 0.58 0.66 0.68 0.70 0.73 0.70 0.70 0.73 0.73 0.70 0.69 0.67 0.64 0.62 0.57 0.49 0.43 0.38 0.33 0.30 0.27 0.24 0.23 0.21 0.23 0.22 0.21 0.19 0.18 0.17 0.17 0.16 0.16 0.16 0.16 0.17 0.16 0.16 0.16 0.18 0.18
0.58 0.64 0.70 0.72 0.70 0.69 0.70 0.71 0.71 0.71 0.70 0.69 0.67 0.65 0.61 0.58 0.50 0.43 0.38 0.34 0.30 0.27 0.24 0.23 0.24 0.22 0.19 0.20 0.20 0.18 0.17 0.16 0.16 0.15 0.16 0.15 0.16 0.16 0.16 0.16 0.16 0.16 0.16 0.17
0.65 0.68 0.70 0.71 0.71 0.69 0.67 0.67 0.66 0.66 0.65 0.64 0.61 0.57 0.53 0.47 0.42 0.36 0.34 0.29 0.24 0.21 0.22 0.22 0.20 0.19 0.17 0.17 0.17 0.17 0.16 0.15 0.15 0.15 0.15 0.15 0.15 0.16 0.16 0.16 0.16 0.16 0.17 0.17
0.62 0.64 0.66 0.65 0.65 0.66 0.64 0.65 0.64 0.62 0.61 0.57 0.49 0.43 0.37 0.35 0.32 0.28 0.25 0.21 0.21 0.20 0.19 0.18 0.17 0.16 0.17 0.17 0.16 0.16 0.15 0.15 0.14 0.15 0.15 0.15 0.15 0.15 0.15 0.15 0.16 0.16 0.16 0.17
0.58 0.60 0.60 0.59 0.58 0.59 0.59 0.58 0.58 0.54 0.51 0.47 0.40 0.34 0.30 0.27 0.26 0.24 0.21 0.19 0.19 0.18 0.16 0.16 0.16 0.16 0.16 0.16 0.16 0.15 0.15 0.14 0.14 0.14 0.14 0.14 0.14 0.14 0.15 0.15 0.15 0.16 0.16 0.16
0.55 0.55 0.56 0.57 0.56 0.55 0.56 0.54 0.50 0.45 0.40 0.35 0.31 0.27 0.24 0.23 0.22 0.20 0.20 0.17 0.17 0.16 0.15 0.15 0.16 0.16 0.16 0.15 0.15 0.14 0.14 0.14 0.14 0.14 0.14 0.14 0.14 0.14 0.14 0.14 0.15 0.15 0.16 0.16
0.52 0.52 0.52 0.51 0.49 0.46 0.45 0.43 0.39 0.36 0.30 0.27 0.24 0.23 0.21 0.20 0.19 0.16 0.15 0.17 0.16 0.15 0.15 0.15 0.16 0.15 0.15 0.15 0.15 0.14 0.14 0.14 0.14 0.14 0.14 0.14 0.14 0.14 0.15 0.15 0.15 0.15 0.15 0.16
0.49 0.49 0.46 0.45 0.42 0.36 0.32 0.32 0.30 0.28 0.26 0.25 0.23 0.23 0.22 0.20 0.17 0.16 0.15 0.15 0.14 0.14 0.14 0.15 0.15 0.14 0.15 0.15 0.14 0.14 0.14 0.14 0.14 0.14 0.15 0.15 0.15 0.15 0.15 0.15 0.15 0.16 0.16 0.16
0.42 0.39 0.37 0.34 0.33 0.31 0.30 0.27 0.25 0.24 0.22 0.21 0.22 0.23 0.22 0.20 0.16 0.16 0.17 0.16 0.15 0.15 0.14 0.15 0.14 0.14 0.15 0.14 0.14 0.14 0.14 0.14 0.14 0.14 0.14 0.14 0.14 0.14 0.15 0.15 0.15 0.14 0.15 0.15
0.38 0.36 0.36 0.35 0.32 0.28 0.26 0.25 0.23 0.23 0.21 0.21 0.23 0.22 0.20 0.18 0.17 0.16 0.16 0.16 0.15 0.14 0.14 0.14 0.15 0.15 0.14 0.14 0.14 0.14 0.14 0.14 0.14 0.14 0.14 0.14 0.14 0.13 0.13 0.13 0.13 0.13 0.13 0.13
0.36 0.36 0.34 0.32 0.31 0.30 0.29 0.27 0.24 0.22 0.21 0.22 0.20 0.20 0.19 0.18 0.17 0.16 0.15 0.15 0.14 0.14 0.14 0.14 0.14 0.14 0.14 0.14 0.14 0.14 0.14 0.14 0.14 0.14 0.14 0.13 0.13 0.13 0.11 0.11 0.11 0.11 0.11 0.11

GFSNGP_prec_pwat_264.txt.gz
Precipitable_Water
0.17 0.19 0.20 0.20 0.19 0.18 0.17 0.24 0.23 0.27 0.28 0.37 0.47 0.48 0.54 0.59 0.65 0.67 0.77 0.78 0.83 0.90 0.93 0.96 0.99 1.09 1.03 0.96 0.90 0.90 0.84 0.82 0.80 0.82 0.81 0.81 0.82 0.81 0.78 0.75 0.73 0.70 0.66 0.63
0.13 0.17 0.18 0.16 0.17 0.18 0.17 0.16 0.17 0.21 0.23 0.38 0.46 0.48 0.53 0.54 0.65 0.66 0.66 0.67 0.77 0.81 0.88 0.93 0.92 0.90 0.96 0.93 0.93 0.96 0.91 0.83 0.82 0.81 0.81 0.79 0.76 0.74 0.73 0.70 0.67 0.65 0.62 0.59
0.12 0.18 0.18 0.12 0.12 0.15 0.14 0.17 0.16 0.12 0.14 0.26 0.33 0.39 0.48 0.58 0.58 0.64 0.74 0.83 0.83 0.94 1.00 0.96 0.95 0.95 0.92 0.91 0.93 0.89 0.90 0.85 0.81 0.78 0.75 0.74 0.73 0.71 0.67 0.64 0.63 0.59 0.58 0.56
0.15 0.17 0.11 0.13 0.17 0.18 0.18 0.18 0.17 0.13 0.15 0.27 0.31 0.36 0.43 0.57 0.54 0.57 0.67 0.85 0.84 0.91 0.97 1.01 1.02 0.99 0.99 0.97 0.93 0.90 0.84 0.79 0.79 0.75 0.73 0.74 0.71 0.67 0.64 0.62 0.59 0.58 0.57 0.56
0.17 0.14 0.15 0.13 0.14 0.18 0.19 0.15 0.18 0.16 0.22 0.27 0.32 0.28 0.30 0.45 0.52 0.59 0.64 0.77 0.88 0.88 0.91 0.96 1.00 1.03 1.02 0.97 0.92 0.84 0.78 0.77 0.75 0.75 0.72 0.70 0.65 0.62 0.62 0.60 0.57 0.55 0.55 0.52
0.20 0.15 0.12 0.09 0.18 0.25 0.25 0.14 0.20 0.26 0.28 0.26 0.28 0.19 0.21 0.38 0.44 0.52 0.68 0.79 0.81 0.85 0.88 0.92 0.94 0.97 0.99 0.96 0.90 0.83 0.80 0.78 0.75 0.72 0.67 0.63 0.63 0.61 0.59 0.57 0.53 0.51 0.47 0.47
0.21 0.19 0.19 0.20 0.23 0.28 0.16 0.13 0.23 0.27 0.29 0.30 0.29 0.30 0.34 0.35 0.41 0.67 0.83 0.80 0.82 0.85 0.84 0.88 0.92 0.95 0.91 0.88 0.87 0.84 0.79 0.74 0.71 0.68 0.64 0.61 0.59 0.56 0.52 0.49 0.45 0.42 0.40 0.40
0.21 0.18 0.14 0.25 0.24 0.20 0.23 0.22 0.24 0.26 0.25 0.26 0.29 0.32 0.32 0.39 0.46 0.68 0.80 0.86 0.86 0.85 0.85 0.90 0.95 0.94 0.89 0.86 0.86 0.81 0.76 0.71 0.66 0.63 0.61 0.59 0.54 0.50 0.46 0.42 0.38 0.36 0.35 0.34
0.25 0.21 0.24 0.26 0.27 0.29 0.28 0.22 0.24 0.25 0.21 0.25 0.26 0.27 0.32 0.41 0.51 0.55 0.70 0.75 0.84 0.85 0.87 0.89 0.91 0.90 0.84 0.83 0.79 0.74 0.70 0.68 0.65 0.60 0.56 0.51 0.46 0.42 0.40 0.38 0.34 0.32 0.30 0.29
0.23 0.21 0.22 0.25 0.30 0.32 0.30 0.26 0.28 0.25 0.24 0.25 0.26 0.28 0.33 0.41 0.48 0.57 0.70 0.74 0.88 0.88 0.83 0.82 0.83 0.83 0.85 0.81 0.80 0.73 0.64 0.60 0.57 0.51 0.48 0.43 0.38 0.37 0.35 0.34 0.32 0.30 0.28 0.26
0.22 0.24 0.24 0.25 0.25 0.26 0.28 0.25 0.25 0.25 0.26 0.27 0.31 0.31 0.36 0.36 0.48 0.59 0.72 0.73 0.80 0.83 0.79 0.79 0.80 0.82 0.80 0.74 0.68 0.61 0.58 0.54 0.48 0.43 0.39 0.36 0.36 0.34 0.31 0.30 0.29 0.27 0.25 0.24
0.18 0.21 0.24 0.23 0.24 0.27 0.27 0.25 0.26 0.28 0.29 0.29 0.36 0.38 0.40 0.47 0.58 0.59 0.66 0.72 0.74 0.80 0.81 0.78 0.77 0.74 0.72 0.68 0.60 0.52 0.46 0.42 0.39 0.35 0.33 0.31 0.29 0.26 0.27 0.25 0.25 0.25 0.23 0.22
0.28 0.31 0.31 0.31 0.30 0.30 0.30 0.29 0.32 0.33 0.32 0.31 0.37 0.39 0.50 0.54 0.59 0.68 0.70 0.67 0.71 0.73 0.72 0.71 0.66 0.61 0.57 0.56 0.50 0.43 0.37 0.33 0.31 0.28 0.26 0.23 0.22 0.20 0.17 0.19 0.20 0.19 0.18 0.17
0.38 0.37 0.31 0.31 0.29 0.31 0.33 0.35 0.34 0.34 0.35 0.38 0.42 0.45 0.53 0.60 0.63 0.67 0.69 0.69 0.68 0.67 0.65 0.62 0.60 0.55 0.50 0.44 0.38 0.33 0.30 0.27 0.24 0.22 0.21 0.20 0.19 0.17 0.17 0.15 0.14 0.14 0.16 0.16
0.39 0.39 0.37 0.34 0.34 0.33 0.34 0.33 0.33 0.35 0.37 0.41 0.45 0.51 0.55 0.60 0.61 0.62 0.66 0.67 0.67 0.65 0.60 0.56 0.50 0.45 0.41 0.35 0.30 0.27 0.25 0.23 0.21 0.20 0.19 0.18 0.16 0.15 0.15 0.15 0.14 0.14 0.14 0.14
0.49 0.46 0.40 0.37 0.33 0.34 0.35 0.34 0.34 0.38 0.41 0.46 0.48 0.54 0.60 0.62 0.60 0.59 0.61 0.60 0.55 0.52 0.50 0.44 0.38 0.35 0.31 0.29 0.27 0.24 0.22 0.20 0.19 0.17 0.16 0.15 0.15 0.13 0.13 0.13 0.13 0.13 0.13 0.13
0.45 0.43 0.46 0.41 0.39 0.37 0.36 0.40 0.42 0.44 0.46 0.49 0.49 0.56 0.59 0.58 0.56 0.55 0.54 0.52 0.50 0.43 0.39 0.34 0.33 0.32 0.29 0.25 0.21 0.19 0.18 0.17 0.15 0.14 0.14 0.14 0.13 0.12 0.13 0.13 0.12 0.12 0.13 0.14
0.55 0.54 0.53 0.51 0.46 0.44 0.44 0.46 0.47 0.47 0.46 0.50 0.54 0.53 0.55 0.55 0.54 0.52 0.48 0.44 0.39 0.37 0.33 0.30 0.27 0.25 0.23 0.21 0.19 0.17 0.15 0.14 0.14 0.13 0.13 0.12 0.12 0.12 0.12 0.12 0.12 0.12 0.12 0.13
0.54 0.51 0.55 0.54 0.54 0.50 0.49 0.50 0.50 0.52 0.54 0.54 0.53 0.52 0.51 0.50 0.47 0.42 0.38 0.33 0.29 0.26 0.26 0.26 0.23 0.20 0.18 0.17 0.16 0.15 0.14 0.13 0.12 0.12 0.12 0.12 0.11 0.12 0.12 0.12 0.12 0.12 0.12 0.13
0.51 0.52 0.53 0.52 0.53 0.53 0.50 0.51 0.52 0.53 0.53 0.54 0.53 0.51 0.48 0.42 0.35 0.32 0.30 0.27 0.26 0.25 0.23 0.20 0.18 0.17 0.16 0.15 0.15 0.14 0.13 0.13 0.12 0.12 0.11 0.11 0.11 0.11 0.11 0.11 0.11 0.12 0.12 0.12
0.49 0.51 0.51 0.51 0.51 0.52 0.53 0.53 0.52 0.51 0.52 0.51 0.46 0.39 0.36 0.33 0.29 0.27 0.24 0.22 0.23 0.22 0.19 0.18 0.16 0.16 0.15 0.15 0.14 0.13 0.13 0.12 0.12 0.11 0.11 0.11 0.11 0.10 0.10 0.11 0.11 0.11 0.11 0.11
0.49 0.50 0.50 0.51 0.50 0.50 0.52 0.52 0.52 0.50 0.46 0.42 0.37 0.31 0.27 0.24 0.24 0.22 0.21 0.18 0.20 0.18 0.17 0.16 0.16 0.15 0.14 0.14 0.14 0.13 0.12 0.12 0.11 0.11 0.11 0.11 0.10 0.09 0.09 0.09 0.09 0.10 0.10 0.10
0.49 0.50 0.50 0.50 0.49 0.48 0.48 0.45 0.41 0.36 0.30 0.27 0.25 0.24 0.22 0.21 0.19 0.17 0.16 0.19 0.18 0.17 0.16 0.15 0.14 0.14 0.14 0.13 0.13 0.12 0.12 0.11 0.11 0.10 0.10 0.09 0.09 0.08 0.08 0.08 0.08 0.08 0.08 0.08
0.45 0.44 0.43 0.43 0.41 0.37 0.33 0.32 0.30 0.28 0.26 0.24 0.23 0.21 0.19 0.17 0.17 0.18 0.18 0.18 0.17 0.16 0.15 0.15 0.14 0.14 0.13 0.12 0.12 0.12 0.12 0.11 0.10 0.09 0.09 0.08 0.07 0.07 0.06 0.06 0.06 0.07 0.07 0.07
0.39 0.37 0.34 0.32 0.30 0.27 0.26 0.25 0.24 0.23 0.22 0.21 0.20 0.20 0.19 0.18 0.16 0.17 0.17 0.16 0.16 0.15 0.14 0.14 0.13 0.12 0.12 0.12 0.12 0.11 0.11 0.10 0.09 0.08 0.07 0.06 0.06 0.06 0.06 0.05 0.05 0.06 0.06 0.06
0.34 0.32 0.30 0.28 0.26 0.25 0.25 0.23 0.21 0.21 0.21 0.19 0.19 0.18 0.18 0.17 0.17 0.16 0.16 0.15 0.15 0.14 0.14 0.13 0.13 0.13 0.12 0.12 0.11 0.11 0.09 0.08 0.07 0.07 0.07 0.07 0.06 0.06 0.05 0.06 0.06 0.06 0.06 0.06
0.31 0.30 0.27 0.26 0.26 0.27 0.26 0.23 0.21 0.20 0.20 0.18 0.17 0.18 0.17 0.16 0.16 0.15 0.15 0.14 0.14 0.14 0.13 0.13 0.13 0.12 0.12 0.11 0.10 0.09 0.08 0.08 0.07 0.07 0.07 0.06 0.06 0.06 0.06 0.06 0.06 0.06 0.06 0.06

GFSNGP_prec_pwat_267.txt.gz
Precipitable_Water
0.17 0.20 0.20 0.19 0.17 0.17 0.16 0.17 0.16 0.14 0.16 0.20 0.24 0.29 0.32 0.40 0.49 0.56 0.62 0.65 0.76 0.81 0.97 1.06 1.14 1.18 1.17 1.14 1.13 1.10 1.04 0.97 0.92 0.86 0.84 0.79 0.79 0.76 0.74 0.72 0.71 0.70 0.67 0.65
0.14 0.19 0.19 0.16 0.17 0.17 0.18 0.16 0.16 0.14 0.12 0.20 0.26 0.30 0.27 0.30 0.42 0.47 0.50 0.58 0.67 0.80 0.92 0.99 1.02 1.07 1.08 1.03 1.04 1.03 0.99 0.98 0.99 0.94 0.91 0.90 0.85 0.74 0.73 0.73 0.72 0.69 0.65 0.62
0.11 0.18 0.18 0.11 0.11 0.14 0.16 0.18 0.18 0.13 0.14 0.20 0.24 0.24 0.25 0.25 0.30 0.35 0.43 0.49 0.57 0.66 0.88 0.95 0.99 1.01 1.00 1.00 1.00 0.98 0.97 0.95 0.95 0.95 0.91 0.83 0.79 0.78 0.72 0.69 0.69 0.65 0.63 0.62
0.15 0.19 0.11 0.13 0.18 0.21 0.20 0.20 0.20 0.18 0.18 0.22 0.24 0.26 0.27 0.28 0.26 0.25 0.31 0.44 0.58 0.63 0.84 0.92 1.00 1.02 1.03 1.03 1.01 0.95 0.91 0.88 0.88 0.87 0.86 0.81 0.75 0.72 0.69 0.67 0.62 0.59 0.60 0.60
0.16 0.16 0.16 0.14 0.19 0.18 0.18 0.16 0.19 0.19 0.19 0.22 0.25 0.27 0.24 0.25 0.29 0.27 0.30 0.40 0.60 0.68 0.81 0.87 0.93 0.96 0.96 0.93 0.97 0.98 0.93 0.94 0.93 0.92 0.82 0.75 0.70 0.68 0.66 0.61 0.57 0.56 0.56 0.52
0.20 0.16 0.12 0.17 0.23 0.29 0.27 0.14 0.21 0.22 0.23 0.23 0.25 0.17 0.19 0.22 0.27 0.26 0.31 0.45 0.59 0.74 0.80 0.82 0.90 0.93 0.88 0.91 0.95 0.91 0.90 0.86 0.83 0.80 0.74 0.69 0.66 0.63 0.60 0.56 0.54 0.54 0.49 0.47
0.20 0.19 0.20 0.23 0.28 0.29 0.18 0.15 0.25 0.26 0.25 0.25 0.23 0.23 0.25 0.25 0.25 0.31 0.32 0.44 0.60 0.76 0.83 0.86 0.86 0.86 0.89 0.89 0.87 0.87 0.86 0.81 0.78 0.76 0.71 0.68 0.66 0.60 0.55 0.52 0.50 0.46 0.43 0.42
0.20 0.18 0.14 0.25 0.25 0.21 0.24 0.28 0.28 0.29 0.28 0.27 0.27 0.25 0.25 0.25 0.26 0.31 0.32 0.38 0.56 0.63 0.79 0.86 0.88 0.87 0.85 0.83 0.84 0.83 0.87 0.83 0.78 0.74 0.69 0.66 0.61 0.58 0.52 0.48 0.43 0.41 0.38 0.36
0.22 0.19 0.25 0.26 0.26 0.28 0.29 0.27 0.27 0.28 0.30 0.29 0.27 0.25 0.25 0.24 0.27 0.31 0.35 0.38 0.52 0.61 0.71 0.77 0.82 0.83 0.80 0.84 0.83 0.81 0.80 0.79 0.73 0.68 0.62 0.59 0.54 0.50 0.45 0.42 0.38 0.35 0.32 0.28
0.20 0.19 0.21 0.22 0.26 0.28 0.27 0.27 0.29 0.32 0.33 0.33 0.28 0.26 0.26 0.28 0.26 0.32 0.37 0.41 0.52 0.59 0.68 0.69 0.73 0.81 0.84 0.82 0.83 0.81 0.76 0.69 0.61 0.55 0.52 0.49 0.46 0.43 0.38 0.35 0.30 0.27 0.25 0.22
0.20 0.22 0.24 0.24 0.26 0.27 0.28 0.31 0.30 0.31 0.31 0.32 0.30 0.30 0.31 0.29 0.28 0.33 0.39 0.47 0.52 0.58 0.65 0.66 0.71 0.75 0.80 0.79 0.78 0.68 0.64 0.58 0.52 0.48 0.42 0.38 0.36 0.33 0.31 0.29 0.26 0.22 0.20 0.19
0.21 0.28 0.28 0.28 0.30 0.32 0.31 0.30 0.29 0.31 0.32 0.33 0.36 0.35 0.34 0.31 0.32 0.37 0.46 0.56 0.56 0.61 0.65 0.68 0.69 0.70 0.72 0.73 0.65 0.55 0.49 0.44 0.40 0.35 0.30 0.27 0.24 0.23 0.24 0.23 0.22 0.21 0.20 0.17
0.30 0.35 0.34 0.35 0.37 0.37 0.35 0.34 0.33 0.34 0.35 0.35 0.40 0.38 0.36 0.34 0.34 0.39 0.54 0.57 0.60 0.62 0.66 0.65 0.65 0.65 0.61 0.60 0.52 0.44 0.39 0.34 0.29 0.26 0.23 0.21 0.20 0.18 0.16 0.18 0.18 0.17 0.16 0.16
0.42 0.42 0.38 0.43 0.39 0.42 0.40 0.37 0.37 0.36 0.38 0.42 0.41 0.40 0.37 0.34 0.35 0.46 0.54 0.58 0.63 0.63 0.64 0.63 0.62 0.58 0.52 0.48 0.40 0.34 0.30 0.26 0.24 0.23 0.20 0.18 0.17 0.16 0.15 0.13 0.12 0.12 0.15 0.14
0.45 0.48 0.46 0.48 0.49 0.47 0.47 0.40 0.35 0.36 0.40 0.42 0.42 0.38 0.35 0.34 0.42 0.53 0.55 0.57 0.59 0.59 0.58 0.59 0.55 0.48 0.43 0.37 0.31 0.27 0.25 0.22 0.20 0.18 0.17 0.16 0.15 0.14 0.14 0.13 0.12 0.12 0.13 0.12
0.43 0.45 0.44 0.43 0.44 0.46 0.45 0.37 0.34 0.36 0.39 0.39 0.37 0.35 0.37 0.47 0.51 0.51 0.54 0.55 0.53 0.52 0.53 0.47 0.41 0.37 0.33 0.30 0.27 0.22 0.20 0.18 0.17 0.16 0.14 0.13 0.13 0.13 0.12 0.12 0.12 0.12 0.12 0.12
0.38 0.35 0.39 0.40 0.43 0.44 0.42 0.37 0.38 0.39 0.38 0.37 0.38 0.42 0.47 0.49 0.49 0.49 0.51 0.52 0.51 0.44 0.41 0.38 0.34 0.30 0.26 0.23 0.20 0.18 0.17 0.16 0.15 0.14 0.13 0.12 0.12 0.12 0.12 0.11 0.11 0.11 0.12 0.12
0.44 0.43 0.44 0.43 0.45 0.45 0.41 0.41 0.40 0.38 0.39 0.41 0.45 0.48 0.47 0.46 0.46 0.47 0.48 0.46 0.41 0.38 0.34 0.31 0.27 0.24 0.21 0.19 0.18 0.17 0.15 0.14 0.13 0.12 0.12 0.12 0.12 0.12 0.11 0.11 0.11 0.10 0.11 0.11
0.46 0.47 0.46 0.46 0.48 0.45 0.43 0.43 0.43 0.46 0.47 0.47 0.48 0.46 0.46 0.46 0.47 0.46 0.41 0.36 0.31 0.27 0.25 0.23 0.21 0.19 0.18 0.18 0.16 0.15 0.13 0.12 0.12 0.12 0.12 0.11 0.11 0.11 0.10 0.10 0.09 0.09 0.10 0.10
0.47 0.48 0.50 0.44 0.47 0.46 0.44 0.46 0.48 0.48 0.48 0.49 0.48 0.46 0.45 0.45 0.39 0.35 0.32 0.29 0.25 0.23 0.21 0.19 0.18 0.17 0.16 0.16 0.15 0.14 0.13 0.12 0.11 0.11 0.10 0.10 0.09 0.09 0.09 0.08 0.08 0.08 0.08 0.09
0.47 0.48 0.48 0.48 0.47 0.46 0.47 0.48 0.47 0.45 0.45 0.47 0.46 0.44 0.38 0.36 0.34 0.30 0.26 0.21 0.21 0.20 0.18 0.18 0.17 0.16 0.15 0.14 0.14 0.13 0.13 0.12 0.11 0.10 0.09 0.08 0.08 0.07 0.06 0.06 0.06 0.06 0.06 0.07
0.46 0.46 0.46 0.47 0.47 0.47 0.48 0.49 0.48 0.47 0.46 0.45 0.42 0.34 0.30 0.27 0.26 0.23 0.21 0.18 0.19 0.18 0.17 0.16 0.16 0.15 0.14 0.14 0.13 0.12 0.11 0.11 0.10 0.09 0.08 0.07 0.06 0.05 0.05 0.05 0.05 0.05 0.05 0.06
0.44 0.45 0.45 0.45 0.45 0.45 0.46 0.46 0.45 0.42 0.35 0.30 0.27 0.26 0.24 0.22 0.20 0.17 0.15 0.18 0.17 0.17 0.16 0.15 0.14 0.14 0.13 0.13 0.12 0.11 0.10 0.09 0.08 0.07 0.06 0.05 0.05 0.05 0.05 0.05 0.05 0.05 0.05 0.05
0.39 0.39 0.38 0.38 0.37 0.33 0.28 0.27 0.25 0.25 0.24 0.23 0.22 0.21 0.19 0.17 0.17 0.18 0.17 0.17 0.16 0.15 0.14 0.14 0.14 0.13 0.13 0.12 0.11 0.10 0.09 0.07 0.07 0.06 0.06 0.05 0.05 0.05 0.05 0.05 0.05 0.05 0.05 0.05
0.33 0.30 0.28 0.25 0.22 0.22 0.22 0.22 0.22 0.21 0.21 0.19 0.19 0.19 0.18 0.18 0.16 0.16 0.16 0.15 0.15 0.14 0.14 0.14 0.13 0.12 0.12 0.11 0.10 0.09 0.08 0.08 0.07 0.06 0.06 0.06 0.05 0.05 0.05 0.05 0.05 0.05 0.05 0.05
0.28 0.25 0.24 0.23 0.22 0.22 0.21 0.20 0.18 0.18 0.17 0.16 0.17 0.17 0.17 0.17 0.16 0.16 0.15 0.15 0.14 0.14 0.13 0.13 0.12 0.12 0.12 0.10 0.09 0.08 0.08 0.07 0.07 0.07 0.06 0.06 0.06 0.06 0.06 0.06 0.06 0.06 0.06 0.06
0.26 0.24 0.23 0.23 0.24 0.23 0.21 0.20 0.18 0.18 0.18 0.16 0.15 0.16 0.16 0.16 0.15 0.15 0.15 0.14 0.14 0.13 0.13 0.13 0.12 0.12 0.10 0.09 0.08 0.08 0.07 0.07 0.07 0.07 0.07 0.06 0.06 0.06 0.06 0.06 0.06 0.06 0.06 0.06